Time,TemperatureF,DewpointF,PressureIn,WindDirection,WindDirectionDegrees,WindSpeedMPH,WindSpeedGustMPH,Humidity,HourlyPrecipIn,Conditions,Clouds,dailyrainin,SolarRadiationWatts/m^2,SoftwareType,DateUTC
2012-10-20 00:00:00,75.5,72.4,29.88,West,259,0.0,1.0,90,0.00,,---,0.00,0.00,VWS V14.01,2012-10-20 04:00:00,
2012-10-20 00:01:00,75.4,72.3,29.88,West,259,0.0,1.0,90,0.00,,---,0.00,0.00,VWS V14.01,2012-10-20 04:01:00,
2012-10-20 00:02:00,75.1,72.3,29.88,West,259,0.0,0.0,91,0.00,,---,0.00,0.00,VWS V14.01,2012-10-20 04:02:00,
2012-10-20 00:04:00,75.0,72.2,29.88,West,259,0.0,1.0,91,0.00,,---,0.00,0.00,VWS V14.01,2012-10-20 04:04:00,
2012-10-20 00:05:00,75.0,72.2,29.88,West,259,0.0,1.0,91,0.00,,---,0.00,0.00,VWS V14.01,2012-10-20 04:05:00,
2012-10-20 00:06:00,75.3,72.5,29.88,West,259,0.0,1.0,91,0.00,,---,0.00,0.00,VWS V14.01,2012-10-20 04:06:00,
2012-10-20 00:09:00,74.9,72.4,29.88,West,259,0.0,1.0,92,0.00,,---,0.00,0.00,VWS V14.01,2012-10-20 04:09:00,
2012-10-20 00:10:00,74.9,72.4,29.88,West,259,0.0,1.0,92,0.00,,---,0.00,0.00,VWS V14.01,2012-10-20 04:10:00,
2012-10-20 00:11:00,75.1,72.3,29.88,West,259,0.0,0.0,91,0.00,,---,0.00,0.00,VWS V14.01,2012-10-20 04:11:00,
2012-10-20 00:12:00,74.8,72.3,29.88,West,259,0.0,1.0,92,0.00,,---,0.00,0.00,VWS V14.01,2012-10-20 04:12:00,
2012-10-20 00:13:00,74.8,72.3,29.88,West,259,0.0,1.0,92,0.00,,---,0.00,0.00,VWS V14.01,2012-10-20 04:13:00,
2012-10-20 00:14:00,74.7,72.2,29.88,West,259,0.0,1.0,92,0.00,,---,0.00,0.00,VWS V14.01,2012-10-20 04:14:00,
2012-10-20 00:16:00,74.9,72.1,29.88,West,259,0.0,1.0,91,0.00,,---,0.00,0.00,VWS V14.01,2012-10-20 04:16:00,
2012-10-20 00:17:00,74.6,72.1,29.88,West,259,0.0,1.0,92,0.00,,---,0.00,0.00,VWS V14.01,2012-10-20 04:17:00,
2012-10-20 00:18:00,74.6,72.1,29.88,West,259,0.0,1.0,92,0.00,,---,0.00,0.00,VWS V14.01,2012-10-20 04:18:00,
2012-10-20 00:19:00,74.6,72.1,29.88,West,259,0.0,1.0,92,0.00,,---,0.00,0.00,VWS V14.01,2012-10-20 04:19:00,
2012-10-20 00:21:00,74.8,72.3,29.88,West,259,0.0,1.0,92,0.00,,---,0.00,0.00,VWS V14.01,2012-10-20 04:21:00,
2012-10-20 00:22:00,74.5,72.3,29.88,West,259,0.0,1.0,93,0.00,,---,0.00,0.00,VWS V14.01,2012-10-20 04:22:00,
2012-10-20 00:24:00,74.4,72.2,29.88,West,259,0.0,1.0,93,0.00,,---,0.00,0.00,VWS V14.01,2012-10-20 04:24:00,
2012-10-20 00:26:00,74.6,72.1,29.88,West,259,0.0,1.0,92,0.00,,---,0.00,0.00,VWS V14.01,2012-10-20 04:26:00,
2012-10-20 00:27:00,74.4,72.2,29.88,West,259,0.0,1.0,93,0.00,,---,0.00,0.00,VWS V14.01,2012-10-20 04:27:00,
2012-10-20 00:28:00,74.4,72.2,29.88,West,259,0.0,1.0,93,0.00,,---,0.00,0.00,VWS V14.01,2012-10-20 04:28:00,
2012-10-20 00:29:00,74.4,72.2,29.88,West,259,0.0,1.0,93,0.00,,---,0.00,0.00,VWS V14.01,2012-10-20 04:29:00,
2012-10-20 00:30:00,74.4,72.2,29.88,West,259,0.0,1.0,93,0.00,,---,0.00,0.00,VWS V14.01,2012-10-20 04:30:00,
2012-10-20 00:31:00,74.5,72.3,29.88,West,259,0.0,1.0,93,0.00,,---,0.00,0.00,VWS V14.01,2012-10-20 04:31:00,
2012-10-20 00:35:00,74.3,72.2,29.87,West,259,0.0,1.0,93,0.00,,---,0.00,0.00,VWS V14.01,2012-10-20 04:35:00,
2012-10-20 00:36:00,74.4,72.2,29.88,West,259,0.0,1.0,93,0.00,,---,0.00,0.00,VWS V14.01,2012-10-20 04:36:00,
2012-10-20 00:37:00,74.4,72.6,29.88,West,259,0.0,1.0,94,0.00,,---,0.00,0.00,VWS V14.01,2012-10-20 04:37:00,
2012-10-20 00:40:00,74.4,72.6,29.88,West,259,0.0,1.0,94,0.00,,---,0.00,0.00,VWS V14.01,2012-10-20 04:40:00,
2012-10-20 00:41:00,74.3,72.2,29.88,West,259,0.0,1.0,93,0.00,,---,0.00,0.00,VWS V14.01,2012-10-20 04:41:00,
2012-10-20 00:42:00,74.5,72.7,29.87,West,259,0.0,1.0,94,0.00,,---,0.00,0.00,VWS V14.01,2012-10-20 04:42:00,
2012-10-20 00:43:00,74.5,72.7,29.87,West,259,0.0,1.0,94,0.00,,---,0.00,0.00,VWS V14.01,2012-10-20 04:43:00,
2012-10-20 00:45:00,74.5,72.7,29.87,West,259,0.0,1.0,94,0.00,,---,0.00,0.00,VWS V14.01,2012-10-20 04:45:00,
2012-10-20 00:46:00,74.3,72.5,29.88,West,259,0.0,1.0,94,0.00,,---,0.00,0.00,VWS V14.01,2012-10-20 04:46:00,
2012-10-20 00:47:00,74.5,72.7,29.87,West,259,0.0,1.0,94,0.00,,---,0.00,0.00,VWS V14.01,2012-10-20 04:47:00,
2012-10-20 00:48:00,74.5,72.7,29.87,West,259,0.0,1.0,94,0.00,,---,0.00,0.00,VWS V14.01,2012-10-20 04:48:00,
2012-10-20 00:50:00,74.4,72.6,29.87,West,259,0.0,1.0,94,0.00,,---,0.00,0.00,VWS V14.01,2012-10-20 04:50:00,
2012-10-20 00:51:00,74.4,72.6,29.87,West,259,0.0,1.0,94,0.00,,---,0.00,0.00,VWS V14.01,2012-10-20 04:51:00,
2012-10-20 00:52:00,74.4,72.6,29.87,West,259,0.0,1.0,94,0.00,,---,0.00,0.00,VWS V14.01,2012-10-20 04:52:00,
2012-10-20 00:55:00,74.3,72.5,29.87,West,259,0.0,1.0,94,0.00,,---,0.00,0.00,VWS V14.01,2012-10-20 04:55:00,
2012-10-20 00:56:00,74.5,72.7,29.87,West,259,0.0,1.0,94,0.00,,---,0.00,0.00,VWS V14.01,2012-10-20 04:56:00,
2012-10-20 00:57:00,74.3,72.5,29.87,West,259,0.0,1.0,94,0.00,,---,0.00,0.00,VWS V14.01,2012-10-20 04:57:00,
2012-10-20 00:59:00,74.2,72.4,29.87,West,259,0.0,1.0,94,0.00,,---,0.00,0.00,VWS V14.01,2012-10-20 04:59:00,
2012-10-20 01:00:00,75.2,72.4,29.88,West,259,0.0,1.0,91,0.00,,---,0.00,0.00,VWS V14.01,2012-10-20 05:00:00,
2012-10-20 01:01:00,74.4,72.6,29.87,West,259,0.0,1.0,94,0.00,,---,0.00,0.00,VWS V14.01,2012-10-20 05:01:00,
2012-10-20 01:06:00,74.3,72.5,29.87,West,259,0.0,1.0,94,0.00,,---,0.00,0.00,VWS V14.01,2012-10-20 05:06:00,
2012-10-20 01:07:00,74.1,72.3,29.87,West,259,0.0,0.0,94,0.00,,---,0.00,0.00,VWS V14.01,2012-10-20 05:07:00,
2012-10-20 01:11:00,74.2,72.4,29.87,West,259,0.0,0.0,94,0.00,,---,0.00,0.00,VWS V14.01,2012-10-20 05:11:00,
2012-10-20 01:13:00,74.0,72.2,29.87,West,259,0.0,0.0,94,0.00,,---,0.00,0.00,VWS V14.01,2012-10-20 05:13:00,
2012-10-20 01:15:00,74.0,72.2,29.87,West,259,0.0,0.0,94,0.00,,---,0.00,0.00,VWS V14.01,2012-10-20 05:15:00,
2012-10-20 01:16:00,74.1,72.3,29.87,West,259,0.0,0.0,94,0.00,,---,0.00,0.00,VWS V14.01,2012-10-20 05:16:00,
2012-10-20 01:17:00,74.0,72.2,29.87,West,259,0.0,0.0,94,0.00,,---,0.00,0.00,VWS V14.01,2012-10-20 05:17:00,
2012-10-20 01:18:00,74.0,72.5,29.87,West,259,0.0,0.0,95,0.00,,---,0.00,0.00,VWS V14.01,2012-10-20 05:18:00,
2012-10-20 01:19:00,74.0,72.2,29.87,West,259,0.0,0.0,94,0.00,,---,0.00,0.00,VWS V14.01,2012-10-20 05:19:00,
2012-10-20 01:21:00,74.0,72.2,29.87,West,259,0.0,0.0,94,0.00,,---,0.00,0.00,VWS V14.01,2012-10-20 05:21:00,
2012-10-20 01:22:00,73.9,72.4,29.87,West,259,0.0,0.0,95,0.00,,---,0.00,0.00,VWS V14.01,2012-10-20 05:22:00,
2012-10-20 01:24:00,73.9,72.4,29.87,West,259,0.0,0.0,95,0.00,,---,0.00,0.00,VWS V14.01,2012-10-20 05:24:00,
2012-10-20 01:26:00,74.0,72.2,29.87,West,259,0.0,0.0,94,0.00,,---,0.00,0.00,VWS V14.01,2012-10-20 05:26:00,
2012-10-20 01:28:00,73.9,72.4,29.87,West,259,0.0,0.0,95,0.00,,---,0.00,0.00,VWS V14.01,2012-10-20 05:28:00,
2012-10-20 01:30:00,73.9,72.4,29.87,West,259,0.0,0.0,95,0.00,,---,0.00,0.00,VWS V14.01,2012-10-20 05:30:00,
2012-10-20 01:31:00,73.9,72.4,29.87,West,259,0.0,0.0,95,0.00,,---,0.00,0.00,VWS V14.01,2012-10-20 05:31:00,
2012-10-20 01:33:00,73.9,72.4,29.87,West,259,0.0,0.0,95,0.00,,---,0.00,0.00,VWS V14.01,2012-10-20 05:33:00,
2012-10-20 01:36:00,73.9,72.4,29.87,West,259,0.0,0.0,95,0.00,,---,0.00,0.00,VWS V14.01,2012-10-20 05:36:00,
2012-10-20 01:41:00,73.9,72.4,29.87,West,259,0.0,0.0,95,0.00,,---,0.00,0.00,VWS V14.01,2012-10-20 05:41:00,
2012-10-20 01:43:00,73.7,72.2,29.88,West,259,0.0,0.0,95,0.00,,---,0.00,0.00,VWS V14.01,2012-10-20 05:43:00,
2012-10-20 01:44:00,73.6,72.1,29.88,West,259,0.0,0.0,95,0.00,,---,0.00,0.00,VWS V14.01,2012-10-20 05:44:00,
2012-10-20 01:46:00,73.8,72.3,29.87,West,259,0.0,0.0,95,0.00,,---,0.00,0.00,VWS V14.01,2012-10-20 05:46:00,
2012-10-20 01:50:00,73.6,72.1,29.88,West,259,0.0,0.0,95,0.00,,---,0.00,0.00,VWS V14.01,2012-10-20 05:50:00,
2012-10-20 01:51:00,73.6,72.1,29.87,West,259,0.0,0.0,95,0.00,,---,0.00,0.00,VWS V14.01,2012-10-20 05:51:00,
2012-10-20 01:52:00,73.7,72.2,29.88,West,259,0.0,0.0,95,0.00,,---,0.00,0.00,VWS V14.01,2012-10-20 05:52:00,
2012-10-20 01:55:00,73.6,72.4,29.87,West,259,0.0,0.0,96,0.00,,---,0.00,0.00,VWS V14.01,2012-10-20 05:55:00,
2012-10-20 01:57:00,73.6,72.1,29.87,West,259,0.0,0.0,95,0.00,,---,0.00,0.00,VWS V14.01,2012-10-20 05:57:00,
2012-10-20 01:58:00,73.6,72.4,29.87,West,259,0.0,0.0,96,0.00,,---,0.00,0.00,VWS V14.01,2012-10-20 05:58:00,
2012-10-20 02:00:00,74.3,72.5,29.87,West,259,0.0,1.0,94,0.00,,---,0.00,0.00,VWS V14.01,2012-10-20 06:00:00,
2012-10-20 02:02:00,73.6,72.1,29.87,West,259,0.0,0.0,95,0.00,,---,0.00,0.00,VWS V14.01,2012-10-20 06:02:00,
2012-10-20 02:07:00,73.6,72.4,29.87,West,259,0.0,0.0,96,0.00,,---,0.00,0.00,VWS V14.01,2012-10-20 06:07:00,
2012-10-20 02:10:00,73.7,72.5,29.87,West,259,0.0,0.0,96,0.00,,---,0.00,0.00,VWS V14.01,2012-10-20 06:10:00,
2012-10-20 02:12:00,73.7,72.5,29.87,West,259,0.0,0.0,96,0.00,,---,0.00,0.00,VWS V14.01,2012-10-20 06:12:00,
2012-10-20 02:14:00,73.6,72.4,29.87,West,259,0.0,0.0,96,0.00,,---,0.00,0.00,VWS V14.01,2012-10-20 06:14:00,
2012-10-20 02:17:00,73.7,72.5,29.87,West,259,0.0,0.0,96,0.00,,---,0.00,0.00,VWS V14.01,2012-10-20 06:17:00,
2012-10-20 02:19:00,73.6,72.4,29.87,West,259,0.0,0.0,96,0.00,,---,0.00,0.00,VWS V14.01,2012-10-20 06:19:00,
2012-10-20 02:22:00,73.6,72.4,29.87,West,259,0.0,0.0,96,0.00,,---,0.00,0.00,VWS V14.01,2012-10-20 06:22:00,
2012-10-20 02:23:00,73.6,72.4,29.87,West,259,0.0,0.0,96,0.00,,---,0.00,0.00,VWS V14.01,2012-10-20 06:23:00,
2012-10-20 02:24:00,73.6,72.4,29.87,West,259,0.0,0.0,96,0.00,,---,0.00,0.00,VWS V14.01,2012-10-20 06:24:00,
2012-10-20 02:26:00,73.7,72.5,29.87,West,259,0.0,0.0,96,0.00,,---,0.00,0.00,VWS V14.01,2012-10-20 06:26:00,
2012-10-20 02:27:00,73.6,72.4,29.87,West,259,0.0,0.0,96,0.00,,---,0.00,0.00,VWS V14.01,2012-10-20 06:27:00,
2012-10-20 02:29:00,73.7,72.5,29.87,West,259,0.0,0.0,96,0.00,,---,0.00,0.00,VWS V14.01,2012-10-20 06:29:00,
2012-10-20 02:30:00,73.7,72.5,29.87,West,259,0.0,0.0,96,0.00,,---,0.00,0.00,VWS V14.01,2012-10-20 06:30:00,
2012-10-20 02:32:00,73.6,72.4,29.87,West,259,0.0,0.0,96,0.00,,---,0.00,0.00,VWS V14.01,2012-10-20 06:32:00,
2012-10-20 02:34:00,73.9,72.7,29.86,West,259,0.0,0.0,96,0.00,,---,0.00,0.00,VWS V14.01,2012-10-20 06:34:00,
2012-10-20 02:36:00,74.0,72.8,29.86,West,259,0.0,0.0,96,0.00,,---,0.00,0.00,VWS V14.01,2012-10-20 06:36:00,
2012-10-20 02:37:00,73.7,72.5,29.87,West,259,0.0,0.0,96,0.00,,---,0.00,0.00,VWS V14.01,2012-10-20 06:37:00,
2012-10-20 02:38:00,73.9,72.7,29.86,West,259,0.0,0.0,96,0.00,,---,0.00,0.00,VWS V14.01,2012-10-20 06:38:00,
2012-10-20 02:41:00,73.9,72.7,29.86,West,259,0.0,0.0,96,0.00,,---,0.00,0.00,VWS V14.01,2012-10-20 06:41:00,
2012-10-20 02:42:00,73.8,72.6,29.86,West,259,0.0,0.0,96,0.00,,---,0.00,0.00,VWS V14.01,2012-10-20 06:42:00,
2012-10-20 02:43:00,73.9,72.7,29.86,West,259,0.0,0.0,96,0.00,,---,0.00,0.00,VWS V14.01,2012-10-20 06:43:00,
2012-10-20 02:45:00,74.0,72.8,29.86,West,259,0.0,1.0,96,0.00,,---,0.00,0.00,VWS V14.01,2012-10-20 06:45:00,
2012-10-20 02:46:00,74.0,72.8,29.86,WNW,284,0.0,1.0,96,0.00,,---,0.00,0.00,VWS V14.01,2012-10-20 06:46:00,
2012-10-20 02:47:00,73.9,72.7,29.86,West,259,0.0,0.0,96,0.00,,---,0.00,0.00,VWS V14.01,2012-10-20 06:47:00,
2012-10-20 02:48:00,74.0,72.8,29.86,North,353,1.0,2.0,96,0.00,,---,0.00,0.00,VWS V14.01,2012-10-20 06:48:00,
2012-10-20 02:50:00,74.1,72.9,29.86,North,353,0.0,2.0,96,0.00,,---,0.00,0.00,VWS V14.01,2012-10-20 06:50:00,
2012-10-20 02:51:00,74.2,73.0,29.86,North,353,0.0,2.0,96,0.00,,---,0.00,0.00,VWS V14.01,2012-10-20 06:51:00,
2012-10-20 02:52:00,73.9,72.7,29.86,West,259,0.0,0.0,96,0.00,,---,0.00,0.00,VWS V14.01,2012-10-20 06:52:00,
2012-10-20 02:55:00,74.4,73.2,29.86,NNW,347,0.0,2.0,96,0.00,,---,0.00,0.00,VWS V14.01,2012-10-20 06:55:00,
2012-10-20 02:57:00,74.0,72.8,29.86,North,353,2.0,2.0,96,0.00,,---,0.00,0.00,VWS V14.01,2012-10-20 06:57:00,
2012-10-20 03:00:00,74.4,73.2,29.86,NNW,347,0.0,0.0,96,0.00,,---,0.00,0.00,VWS V14.01,2012-10-20 07:00:00,
2012-10-20 03:02:00,74.2,73.0,29.86,North,353,2.0,2.0,96,0.00,,---,0.00,0.00,VWS V14.01,2012-10-20 07:02:00,
2012-10-20 03:03:00,74.5,73.3,29.86,NW,323,2.0,3.0,96,0.00,,---,0.00,0.00,VWS V14.01,2012-10-20 07:03:00,
2012-10-20 03:05:00,74.6,73.4,29.86,NNW,336,1.0,3.0,96,0.00,,---,0.00,0.00,VWS V14.01,2012-10-20 07:05:00,
2012-10-20 03:07:00,74.4,73.2,29.86,NNW,347,0.0,2.0,96,0.00,,---,0.00,0.00,VWS V14.01,2012-10-20 07:07:00,
2012-10-20 03:09:00,74.6,73.1,29.86,WNW,283,0.0,3.0,95,0.00,,---,0.00,0.00,VWS V14.01,2012-10-20 07:09:00,
2012-10-20 03:10:00,74.6,73.1,29.86,WNW,283,0.0,3.0,95,0.00,,---,0.00,0.00,VWS V14.01,2012-10-20 07:10:00,
2012-10-20 03:12:00,74.5,73.3,29.86,NW,322,2.0,3.0,96,0.00,,---,0.00,0.00,VWS V14.01,2012-10-20 07:12:00,
2012-10-20 03:13:00,74.6,73.1,29.86,NNW,338,0.0,3.0,95,0.00,,---,0.00,0.00,VWS V14.01,2012-10-20 07:13:00,
2012-10-20 03:14:00,74.6,73.1,29.86,NNW,338,0.0,3.0,95,0.00,,---,0.00,0.00,VWS V14.01,2012-10-20 07:14:00,
2012-10-20 03:16:00,74.7,73.2,29.86,NNW,338,0.0,3.0,95,0.00,,---,0.00,0.00,VWS V14.01,2012-10-20 07:16:00,
2012-10-20 03:17:00,74.6,73.1,29.86,West,280,0.0,3.0,95,0.00,,---,0.00,0.00,VWS V14.01,2012-10-20 07:17:00,
2012-10-20 03:19:00,74.8,73.0,29.86,NNW,338,0.0,3.0,94,0.00,,---,0.00,0.00,VWS V14.01,2012-10-20 07:19:00,
2012-10-20 03:22:00,74.7,73.2,29.86,NNW,338,0.0,3.0,95,0.00,,---,0.00,0.00,VWS V14.01,2012-10-20 07:22:00,
2012-10-20 03:24:00,74.8,73.0,29.86,NNW,340,1.0,3.0,94,0.00,,---,0.00,0.00,VWS V14.01,2012-10-20 07:24:00,
2012-10-20 03:25:00,74.8,73.0,29.86,NNW,340,0.0,3.0,94,0.00,,---,0.00,0.00,VWS V14.01,2012-10-20 07:25:00,
2012-10-20 03:26:00,74.8,73.0,29.86,NNW,340,0.0,3.0,94,0.00,,---,0.00,0.00,VWS V14.01,2012-10-20 07:26:00,
2012-10-20 03:27:00,74.8,73.3,29.86,NNW,338,0.0,3.0,95,0.00,,---,0.00,0.00,VWS V14.01,2012-10-20 07:27:00,
2012-10-20 03:30:00,74.9,73.1,29.86,North,350,3.0,3.0,94,0.00,,---,0.00,0.00,VWS V14.01,2012-10-20 07:30:00,
2012-10-20 03:32:00,74.8,73.0,29.86,NNW,340,0.0,3.0,94,0.00,,---,0.00,0.00,VWS V14.01,2012-10-20 07:32:00,
2012-10-20 03:34:00,74.9,73.1,29.86,NNW,331,1.0,4.0,94,0.00,,---,0.00,0.00,VWS V14.01,2012-10-20 07:34:00,
2012-10-20 03:35:00,74.9,73.1,29.86,NNW,332,1.0,4.0,94,0.00,,---,0.00,0.00,VWS V14.01,2012-10-20 07:35:00,
2012-10-20 03:37:00,74.9,73.1,29.86,NNW,327,0.0,3.0,94,0.00,,---,0.00,0.00,VWS V14.01,2012-10-20 07:37:00,
2012-10-20 03:38:00,74.9,73.1,29.86,NNW,329,1.0,5.0,94,0.00,,---,0.00,0.00,VWS V14.01,2012-10-20 07:38:00,
2012-10-20 03:39:00,74.9,73.1,29.86,NNW,329,1.0,5.0,94,0.00,,---,0.00,0.00,VWS V14.01,2012-10-20 07:39:00,
2012-10-20 03:41:00,74.8,73.0,29.86,NNW,344,1.0,5.0,94,0.00,,---,0.00,0.00,VWS V14.01,2012-10-20 07:41:00,
2012-10-20 03:42:00,74.9,73.1,29.86,NNE,12,0.0,4.0,94,0.00,,---,0.00,0.00,VWS V14.01,2012-10-20 07:42:00,
2012-10-20 03:43:00,74.8,73.0,29.86,NNW,343,0.0,5.0,94,0.00,,---,0.00,0.00,VWS V14.01,2012-10-20 07:43:00,
2012-10-20 03:44:00,74.8,73.0,29.86,North,352,0.0,5.0,94,0.00,,---,0.00,0.00,VWS V14.01,2012-10-20 07:44:00,
2012-10-20 03:46:00,74.7,72.9,29.86,North,352,0.0,5.0,94,0.00,,---,0.00,0.00,VWS V14.01,2012-10-20 07:46:00,
2012-10-20 03:47:00,74.9,73.1,29.86,NNW,329,1.0,5.0,94,0.00,,---,0.00,0.00,VWS V14.01,2012-10-20 07:47:00,
2012-10-20 03:51:00,74.4,72.6,29.86,WNW,293,0.0,5.0,94,0.00,,---,0.00,0.00,VWS V14.01,2012-10-20 07:51:00,
2012-10-20 03:52:00,74.8,73.0,29.86,NNW,343,0.0,5.0,94,0.00,,---,0.00,0.00,VWS V14.01,2012-10-20 07:52:00,
2012-10-20 03:54:00,74.3,72.5,29.86,ENE,70,0.0,5.0,94,0.00,,---,0.00,0.00,VWS V14.01,2012-10-20 07:54:00,
2012-10-20 03:56:00,74.2,72.4,29.86,ENE,70,0.0,5.0,94,0.00,,---,0.00,0.00,VWS V14.01,2012-10-20 07:56:00,
2012-10-20 03:58:00,74.6,72.8,29.86,WNW,295,0.0,5.0,94,0.00,,---,0.00,0.00,VWS V14.01,2012-10-20 07:58:00,
2012-10-20 04:00:00,74.4,73.2,29.86,NNW,347,0.0,2.0,96,0.00,,---,0.00,0.00,VWS V14.01,2012-10-20 08:00:00,
2012-10-20 04:02:00,74.0,72.5,29.86,NNW,338,0.0,2.0,95,0.00,,---,0.00,0.00,VWS V14.01,2012-10-20 08:02:00,
2012-10-20 04:03:00,74.4,72.6,29.86,WNW,294,2.0,5.0,94,0.00,,---,0.00,0.00,VWS V14.01,2012-10-20 08:03:00,
2012-10-20 04:04:00,74.0,72.5,29.86,NW,320,1.0,3.0,95,0.00,,---,0.00,0.00,VWS V14.01,2012-10-20 08:04:00,
2012-10-20 04:06:00,74.0,72.5,29.86,NW,320,1.0,3.0,95,0.00,,---,0.00,0.00,VWS V14.01,2012-10-20 08:06:00,
2012-10-20 04:07:00,74.1,72.6,29.86,NW,320,0.0,3.0,95,0.00,,---,0.00,0.00,VWS V14.01,2012-10-20 08:07:00,
2012-10-20 04:08:00,74.1,72.3,29.86,North,352,1.0,5.0,94,0.00,,---,0.00,0.00,VWS V14.01,2012-10-20 08:08:00,
2012-10-20 04:10:00,74.1,72.6,29.86,NW,322,0.0,3.0,95,0.00,,---,0.00,0.00,VWS V14.01,2012-10-20 08:10:00,
2012-10-20 04:11:00,74.1,72.6,29.86,NW,322,0.0,3.0,95,0.00,,---,0.00,0.00,VWS V14.01,2012-10-20 08:11:00,
2012-10-20 04:13:00,74.0,72.5,29.86,NNW,338,1.0,2.0,95,0.00,,---,0.00,0.00,VWS V14.01,2012-10-20 08:13:00,
2012-10-20 04:14:00,74.2,72.7,29.86,NW,322,0.0,3.0,95,0.00,,---,0.00,0.00,VWS V14.01,2012-10-20 08:14:00,
2012-10-20 04:16:00,74.2,72.7,29.86,NW,322,0.0,3.0,95,0.00,,---,0.00,0.00,VWS V14.01,2012-10-20 08:16:00,
2012-10-20 04:18:00,74.1,72.6,29.86,NNW,346,0.0,3.0,95,0.00,,---,0.00,0.00,VWS V14.01,2012-10-20 08:18:00,
2012-10-20 04:20:00,74.2,72.7,29.86,NNW,335,2.0,3.0,95,0.00,,---,0.00,0.00,VWS V14.01,2012-10-20 08:20:00,
2012-10-20 04:21:00,74.2,72.4,29.86,NNW,341,0.0,3.0,94,0.00,,---,0.00,0.00,VWS V14.01,2012-10-20 08:21:00,
2012-10-20 04:22:00,74.2,72.4,29.86,NNW,341,0.0,3.0,94,0.00,,---,0.00,0.00,VWS V14.01,2012-10-20 08:22:00,
2012-10-20 04:23:00,74.1,72.6,29.86,NW,322,0.0,3.0,95,0.00,,---,0.00,0.00,VWS V14.01,2012-10-20 08:23:00,
2012-10-20 04:25:00,74.2,72.4,29.86,NW,323,1.0,3.0,94,0.00,,---,0.00,0.00,VWS V14.01,2012-10-20 08:25:00,
2012-10-20 04:26:00,74.2,72.4,29.86,NNW,345,0.0,3.0,94,0.00,,---,0.00,0.00,VWS V14.01,2012-10-20 08:26:00,
2012-10-20 04:27:00,74.2,72.4,29.86,NNW,345,0.0,3.0,94,0.00,,---,0.00,0.00,VWS V14.01,2012-10-20 08:27:00,
2012-10-20 04:28:00,74.2,72.7,29.86,NW,322,0.0,3.0,95,0.00,,---,0.00,0.00,VWS V14.01,2012-10-20 08:28:00,
2012-10-20 04:30:00,74.1,72.3,29.86,NNW,344,0.0,3.0,94,0.00,,---,0.00,0.00,VWS V14.01,2012-10-20 08:30:00,
2012-10-20 04:33:00,74.2,72.4,29.86,NNW,332,1.0,3.0,94,0.00,,---,0.00,0.00,VWS V14.01,2012-10-20 08:33:00,
2012-10-20 04:34:00,74.0,72.2,29.87,NNW,344,1.0,3.0,94,0.00,,---,0.00,0.00,VWS V14.01,2012-10-20 08:34:00,
2012-10-20 04:36:00,74.0,72.2,29.87,North,10,0.0,3.0,94,0.00,,---,0.00,0.00,VWS V14.01,2012-10-20 08:36:00,
2012-10-20 04:38:00,74.2,72.4,29.86,NNW,345,0.0,3.0,94,0.00,,---,0.00,0.00,VWS V14.01,2012-10-20 08:38:00,
2012-10-20 04:40:00,73.9,72.1,29.87,North,10,0.0,3.0,94,0.00,,---,0.00,0.00,VWS V14.01,2012-10-20 08:40:00,
2012-10-20 04:41:00,73.9,72.1,29.87,North,10,1.0,3.0,94,0.00,,---,0.00,0.00,VWS V14.01,2012-10-20 08:41:00,
2012-10-20 04:43:00,74.1,72.3,29.87,NNW,344,0.0,3.0,94,0.00,,---,0.00,0.00,VWS V14.01,2012-10-20 08:43:00,
2012-10-20 04:44:00,73.9,72.1,29.87,North,10,0.0,3.0,94,0.00,,---,0.00,0.00,VWS V14.01,2012-10-20 08:44:00,
2012-10-20 04:46:00,73.9,72.1,29.87,NNW,337,0.0,3.0,94,0.00,,---,0.00,0.00,VWS V14.01,2012-10-20 08:46:00,
2012-10-20 04:47:00,73.8,72.0,29.87,NNE,15,0.0,3.0,94,0.00,,---,0.00,0.00,VWS V14.01,2012-10-20 08:47:00,
2012-10-20 04:48:00,73.9,72.1,29.87,North,10,0.0,3.0,94,0.00,,---,0.00,0.00,VWS V14.01,2012-10-20 08:48:00,
2012-10-20 04:52:00,73.8,72.0,29.87,NNE,15,0.0,3.0,94,0.00,,---,0.00,0.00,VWS V14.01,2012-10-20 08:52:00,
2012-10-20 04:53:00,73.9,72.1,29.87,North,10,0.0,3.0,94,0.00,,---,0.00,0.00,VWS V14.01,2012-10-20 08:53:00,
2012-10-20 04:57:00,73.8,72.0,29.88,NW,317,0.0,3.0,94,0.00,,---,0.00,0.00,VWS V14.01,2012-10-20 08:57:00,
2012-10-20 04:58:00,73.8,72.0,29.87,NNE,15,0.0,3.0,94,0.00,,---,0.00,0.00,VWS V14.01,2012-10-20 08:58:00,
2012-10-20 04:59:00,73.8,72.0,29.87,NNW,328,0.0,3.0,94,0.00,,---,0.00,0.00,VWS V14.01,2012-10-20 08:59:00,
2012-10-20 05:00:00,73.8,72.0,29.88,NNW,328,1.0,1.0,94,0.00,,---,0.00,0.00,VWS V14.01,2012-10-20 09:00:00,
2012-10-20 05:01:00,73.8,72.0,29.87,NNW,328,0.0,1.0,94,0.00,,---,0.00,0.00,VWS V14.01,2012-10-20 09:01:00,
2012-10-20 05:02:00,73.9,72.1,29.87,NNW,328,0.0,1.0,94,0.00,,---,0.00,0.00,VWS V14.01,2012-10-20 09:02:00,
2012-10-20 05:03:00,73.8,72.0,29.87,North,358,0.0,3.0,94,0.00,,---,0.00,0.00,VWS V14.01,2012-10-20 09:03:00,
2012-10-20 05:08:00,73.8,72.0,29.87,NNW,328,0.0,3.0,94,0.00,,---,0.00,0.00,VWS V14.01,2012-10-20 09:08:00,
2012-10-20 05:09:00,73.8,71.7,29.87,NNW,347,0.0,2.0,93,0.00,,---,0.00,0.00,VWS V14.01,2012-10-20 09:09:00,
2012-10-20 05:12:00,73.8,71.7,29.87,NNW,330,0.0,2.0,93,0.00,,---,0.00,0.00,VWS V14.01,2012-10-20 09:12:00,
2012-10-20 05:13:00,73.8,71.7,29.88,NNW,347,1.0,2.0,93,0.00,,---,0.00,0.00,VWS V14.01,2012-10-20 09:13:00,
2012-10-20 05:16:00,73.7,71.6,29.88,NW,317,0.0,2.0,93,0.00,,---,0.00,0.00,VWS V14.01,2012-10-20 09:16:00,
2012-10-20 05:18:00,73.8,71.7,29.87,NNW,347,0.0,2.0,93,0.00,,---,0.00,0.00,VWS V14.01,2012-10-20 09:18:00,
2012-10-20 05:19:00,73.6,71.1,29.88,NNW,337,0.0,2.0,92,0.00,,---,0.00,0.00,VWS V14.01,2012-10-20 09:19:00,
2012-10-20 05:21:00,73.6,71.1,29.88,NW,326,1.0,2.0,92,0.00,,---,0.00,0.00,VWS V14.01,2012-10-20 09:21:00,
2012-10-20 05:23:00,73.8,71.7,29.87,NNW,346,0.0,2.0,93,0.00,,---,0.00,0.00,VWS V14.01,2012-10-20 09:23:00,
2012-10-20 05:28:00,73.6,71.1,29.88,NNW,337,0.0,2.0,92,0.00,,---,0.00,0.00,VWS V14.01,2012-10-20 09:28:00,
2012-10-20 05:31:00,73.4,70.9,29.88,NNE,29,0.0,2.0,92,0.00,,---,0.00,0.00,VWS V14.01,2012-10-20 09:31:00,
2012-10-20 05:32:00,73.4,70.9,29.88,NNW,341,1.0,2.0,92,0.00,,---,0.00,0.00,VWS V14.01,2012-10-20 09:32:00,
2012-10-20 05:33:00,73.6,71.1,29.88,NW,317,1.0,2.0,92,0.00,,---,0.00,0.00,VWS V14.01,2012-10-20 09:33:00,
2012-10-20 05:35:00,73.3,70.8,29.88,NNW,340,0.0,2.0,92,0.00,,---,0.00,0.00,VWS V14.01,2012-10-20 09:35:00,
2012-10-20 05:36:00,73.3,70.8,29.89,NNW,331,1.0,2.0,92,0.00,,---,0.00,0.00,VWS V14.01,2012-10-20 09:36:00,
2012-10-20 05:38:00,73.4,70.9,29.88,NNW,347,0.0,2.0,92,0.00,,---,0.00,0.00,VWS V14.01,2012-10-20 09:38:00,
2012-10-20 05:40:00,73.2,70.7,29.89,NW,310,0.0,2.0,92,0.00,,---,0.00,0.00,VWS V14.01,2012-10-20 09:40:00,
2012-10-20 05:41:00,73.2,70.7,29.89,NW,310,0.0,2.0,92,0.00,,---,0.00,0.00,VWS V14.01,2012-10-20 09:41:00,
2012-10-20 05:43:00,73.3,70.8,29.88,NNW,341,0.0,2.0,92,0.00,,---,0.00,0.00,VWS V14.01,2012-10-20 09:43:00,
2012-10-20 05:44:00,73.2,70.7,29.89,NNW,327,0.0,2.0,92,0.00,,---,0.00,0.00,VWS V14.01,2012-10-20 09:44:00,
2012-10-20 05:47:00,73.1,70.6,29.89,NNW,328,0.0,2.0,92,0.00,,---,0.00,0.00,VWS V14.01,2012-10-20 09:47:00,
2012-10-20 05:48:00,73.3,70.8,29.89,NW,310,0.0,2.0,92,0.00,,---,0.00,0.00,VWS V14.01,2012-10-20 09:48:00,
2012-10-20 05:49:00,73.1,70.6,29.89,NNW,328,0.0,2.0,92,0.00,,---,0.00,0.00,VWS V14.01,2012-10-20 09:49:00,
2012-10-20 05:52:00,73.0,70.9,29.89,NNW,328,0.0,2.0,93,0.00,,---,0.00,0.00,VWS V14.01,2012-10-20 09:52:00,
2012-10-20 05:53:00,73.2,70.7,29.89,NNW,327,0.0,2.0,92,0.00,,---,0.00,0.00,VWS V14.01,2012-10-20 09:53:00,
2012-10-20 05:55:00,72.9,70.4,29.89,NNW,328,0.0,2.0,92,0.00,,---,0.00,0.00,VWS V14.01,2012-10-20 09:55:00,
2012-10-20 05:58:00,73.1,70.6,29.89,NNW,328,0.0,2.0,92,0.00,,---,0.00,0.00,VWS V14.01,2012-10-20 09:58:00,
2012-10-20 05:59:00,72.7,70.2,29.89,NNW,328,0.0,2.0,92,0.00,,---,0.00,0.00,VWS V14.01,2012-10-20 09:59:00,
2012-10-20 06:00:00,72.7,70.2,29.90,NNW,328,0.0,0.0,92,0.00,,---,0.00,0.00,VWS V14.01,2012-10-20 10:00:00,
2012-10-20 06:01:00,72.6,70.2,29.90,NNW,328,0.0,0.0,92,0.00,,---,0.00,0.00,VWS V14.01,2012-10-20 10:01:00,
2012-10-20 06:03:00,72.9,70.4,29.89,NNW,328,0.0,2.0,92,0.00,,---,0.00,0.00,VWS V14.01,2012-10-20 10:03:00,
2012-10-20 06:04:00,72.4,69.9,29.90,NNW,328,0.0,0.0,92,0.00,,---,0.00,0.00,VWS V14.01,2012-10-20 10:04:00,
2012-10-20 06:06:00,72.3,69.8,29.90,NNW,328,0.0,0.0,92,0.00,,---,0.00,0.00,VWS V14.01,2012-10-20 10:06:00,
2012-10-20 06:08:00,72.7,70.2,29.89,NNW,328,0.0,2.0,92,0.00,,---,0.00,0.00,VWS V14.01,2012-10-20 10:08:00,
2012-10-20 06:09:00,72.1,69.7,29.90,NNW,328,0.0,0.0,92,0.00,,---,0.00,0.00,VWS V14.01,2012-10-20 10:09:00,
2012-10-20 06:11:00,72.0,69.9,29.90,NNW,328,0.0,0.0,93,0.00,,---,0.00,0.00,VWS V14.01,2012-10-20 10:11:00,
2012-10-20 06:12:00,72.0,69.6,29.90,NNW,328,0.0,0.0,92,0.00,,---,0.00,0.00,VWS V14.01,2012-10-20 10:12:00,
2012-10-20 06:13:00,72.4,69.9,29.90,NNW,328,0.0,0.0,92,0.00,,---,0.00,0.00,VWS V14.01,2012-10-20 10:13:00,
2012-10-20 06:14:00,71.9,69.8,29.90,NNW,328,0.0,0.0,93,0.00,,---,0.00,0.00,VWS V14.01,2012-10-20 10:14:00,
2012-10-20 06:16:00,71.7,69.6,29.90,NNW,328,0.0,0.0,93,0.00,,---,0.00,0.00,VWS V14.01,2012-10-20 10:16:00,
2012-10-20 06:18:00,72.1,69.7,29.90,NNW,328,0.0,0.0,92,0.00,,---,0.00,0.00,VWS V14.01,2012-10-20 10:18:00,
2012-10-20 06:20:00,71.6,69.8,29.90,NNW,328,0.0,0.0,94,0.00,,---,0.00,0.00,VWS V14.01,2012-10-20 10:20:00,
2012-10-20 06:21:00,71.6,69.8,29.90,NNW,328,0.0,0.0,94,0.00,,---,0.00,0.00,VWS V14.01,2012-10-20 10:21:00,
2012-10-20 06:22:00,71.6,69.8,29.90,NE,35,1.0,2.0,94,0.00,,---,0.00,0.00,VWS V14.01,2012-10-20 10:22:00,
2012-10-20 06:23:00,71.9,69.8,29.90,NNW,328,0.0,0.0,93,0.00,,---,0.00,0.00,VWS V14.01,2012-10-20 10:23:00,
2012-10-20 06:26:00,71.7,69.9,29.90,North,358,1.0,2.0,94,0.00,,---,0.00,0.00,VWS V14.01,2012-10-20 10:26:00,
2012-10-20 06:27:00,71.7,69.9,29.90,North,358,1.0,2.0,94,0.00,,---,0.00,0.00,VWS V14.01,2012-10-20 10:27:00,
2012-10-20 06:28:00,71.6,69.5,29.90,NNW,328,0.0,0.0,93,0.00,,---,0.00,0.00,VWS V14.01,2012-10-20 10:28:00,
2012-10-20 06:29:00,71.6,69.5,29.90,North,358,1.0,2.0,93,0.00,,---,0.00,0.00,VWS V14.01,2012-10-20 10:29:00,
2012-10-20 06:33:00,71.6,69.8,29.90,North,353,0.0,2.0,94,0.00,,---,0.00,0.00,VWS V14.01,2012-10-20 10:33:00,
2012-10-20 06:34:00,71.3,69.2,29.90,North,3,0.0,5.0,93,0.00,,---,0.00,0.00,VWS V14.01,2012-10-20 10:34:00,
2012-10-20 06:35:00,71.2,68.8,29.90,North,3,0.0,5.0,92,0.00,,---,0.00,0.00,VWS V14.01,2012-10-20 10:35:00,
2012-10-20 06:36:00,71.1,68.7,29.90,North,3,0.0,5.0,92,0.00,,---,0.00,0.00,VWS V14.01,2012-10-20 10:36:00,
2012-10-20 06:37:00,71.1,68.7,29.90,WNW,302,0.0,5.0,92,0.00,,---,0.00,0.00,VWS V14.01,2012-10-20 10:37:00,
2012-10-20 06:38:00,71.6,69.5,29.90,North,358,0.0,2.0,93,0.00,,---,0.00,0.00,VWS V14.01,2012-10-20 10:38:00,
2012-10-20 06:40:00,71.0,68.6,29.91,NE,42,0.0,5.0,92,0.00,,---,0.00,0.00,VWS V14.01,2012-10-20 10:40:00,
2012-10-20 06:43:00,71.3,69.2,29.90,East,79,2.0,5.0,93,0.00,,---,0.00,0.00,VWS V14.01,2012-10-20 10:43:00,
2012-10-20 06:44:00,70.7,67.9,29.91,ENE,77,0.0,5.0,91,0.00,,---,0.00,0.00,VWS V14.01,2012-10-20 10:44:00,
2012-10-20 06:46:00,70.5,67.4,29.91,NNE,16,0.0,5.0,90,0.00,,---,0.00,0.00,VWS V14.01,2012-10-20 10:46:00,
2012-10-20 06:48:00,71.0,68.6,29.91,WNW,302,0.0,5.0,92,0.00,,---,0.00,0.00,VWS V14.01,2012-10-20 10:48:00,
2012-10-20 06:53:00,70.7,68.3,29.91,ENE,77,1.0,5.0,92,0.00,,---,0.00,0.00,VWS V14.01,2012-10-20 10:53:00,
2012-10-20 06:55:00,69.9,65.2,29.92,NW,322,0.0,5.0,85,0.00,,---,0.00,0.00,VWS V14.01,2012-10-20 10:55:00,
2012-10-20 06:56:00,69.9,65.2,29.92,NW,322,0.0,5.0,85,0.00,,---,0.00,0.00,VWS V14.01,2012-10-20 10:56:00,
2012-10-20 06:57:00,69.8,64.8,29.92,NW,323,0.0,5.0,84,0.00,,---,0.00,0.00,VWS V14.01,2012-10-20 10:57:00,
2012-10-20 06:58:00,70.4,67.0,29.91,East,98,0.0,5.0,89,0.00,,---,0.00,0.00,VWS V14.01,2012-10-20 10:58:00,
2012-10-20 06:59:00,69.7,64.7,29.92,East,85,1.0,5.0,84,0.00,,---,0.00,0.00,VWS V14.01,2012-10-20 10:59:00,
2012-10-20 07:00:00,69.7,65.0,29.92,NE,50,1.0,3.0,85,0.00,,---,0.00,0.00,VWS V14.01,2012-10-20 11:00:00,
2012-10-20 07:03:00,70.0,65.6,29.91,NW,322,0.0,5.0,86,0.00,,---,0.00,0.00,VWS V14.01,2012-10-20 11:03:00,
2012-10-20 07:06:00,69.4,64.7,29.92,ENE,64,2.0,4.0,85,0.00,,---,0.00,0.00,VWS V14.01,2012-10-20 11:06:00,
2012-10-20 07:07:00,69.3,64.6,29.92,NE,52,4.0,4.0,85,0.00,,---,0.00,0.00,VWS V14.01,2012-10-20 11:07:00,
2012-10-20 07:08:00,69.7,64.7,29.92,East,88,2.0,5.0,84,0.00,,---,0.00,0.00,VWS V14.01,2012-10-20 11:08:00,
2012-10-20 07:09:00,69.1,64.4,29.92,East,79,5.0,8.0,85,0.00,,---,0.00,0.00,VWS V14.01,2012-10-20 11:09:00,
2012-10-20 07:12:00,68.8,63.4,29.92,NE,41,1.0,8.0,83,0.00,,---,0.00,0.00,VWS V14.01,2012-10-20 11:12:00,
2012-10-20 07:13:00,69.5,65.1,29.92,ENE,57,3.0,4.0,86,0.00,,---,0.00,0.00,VWS V14.01,2012-10-20 11:13:00,
2012-10-20 07:15:00,68.7,63.3,29.92,NW,313,0.0,8.0,83,0.00,,---,0.00,0.00,VWS V14.01,2012-10-20 11:15:00,
2012-10-20 07:16:00,68.7,63.3,29.92,North,350,0.0,8.0,83,0.00,,---,0.00,0.00,VWS V14.01,2012-10-20 11:16:00,
2012-10-20 07:18:00,69.1,64.4,29.92,ENE,58,6.0,8.0,85,0.00,,---,0.00,0.00,VWS V14.01,2012-10-20 11:18:00,
2012-10-20 07:19:00,68.6,62.5,29.93,NE,56,3.0,8.0,81,0.00,,---,0.00,0.00,VWS V14.01,2012-10-20 11:19:00,
2012-10-20 07:21:00,68.5,62.5,29.93,East,84,1.0,8.0,81,0.00,,---,0.00,0.00,VWS V14.01,2012-10-20 11:21:00,
2012-10-20 07:23:00,68.8,63.4,29.92,WNW,284,1.0,8.0,83,0.00,,---,0.00,0.00,VWS V14.01,2012-10-20 11:23:00,
2012-10-20 07:24:00,68.4,62.3,29.92,NE,45,1.0,8.0,81,0.00,,---,0.00,0.00,VWS V14.01,2012-10-20 11:24:00,
2012-10-20 07:27:00,68.3,62.2,29.92,NE,37,2.0,8.0,81,0.00,,---,0.00,0.00,VWS V14.01,2012-10-20 11:27:00,
2012-10-20 07:28:00,68.6,62.5,29.93,NE,56,3.0,8.0,81,0.00,,---,0.00,0.00,VWS V14.01,2012-10-20 11:28:00,
2012-10-20 07:30:00,68.1,61.7,29.93,NNE,18,3.0,8.0,80,0.00,,---,0.00,5.00,VWS V14.01,2012-10-20 11:30:00,
2012-10-20 07:33:00,68.4,62.3,29.92,NE,45,1.0,8.0,81,0.00,,---,0.00,0.00,VWS V14.01,2012-10-20 11:33:00,
2012-10-20 07:34:00,67.9,61.5,29.93,NE,47,1.0,8.0,80,0.00,,---,0.00,9.00,VWS V14.01,2012-10-20 11:34:00,
2012-10-20 07:36:00,67.8,61.1,29.93,NE,55,3.0,8.0,79,0.00,,---,0.00,9.00,VWS V14.01,2012-10-20 11:36:00,
2012-10-20 07:37:00,67.8,60.7,29.93,ENE,63,0.0,8.0,78,0.00,,---,0.00,12.00,VWS V14.01,2012-10-20 11:37:00,
2012-10-20 07:38:00,68.2,61.8,29.93,ENE,59,0.0,8.0,80,0.00,,---,0.00,5.00,VWS V14.01,2012-10-20 11:38:00,
2012-10-20 07:40:00,67.7,60.6,29.93,NE,35,2.0,8.0,78,0.00,,---,0.00,12.00,VWS V14.01,2012-10-20 11:40:00,
2012-10-20 07:42:00,67.6,60.5,29.93,NE,54,3.0,8.0,78,0.00,,---,0.00,12.00,VWS V14.01,2012-10-20 11:42:00,
2012-10-20 07:43:00,67.9,61.5,29.93,NE,47,1.0,8.0,80,0.00,,---,0.00,9.00,VWS V14.01,2012-10-20 11:43:00,
2012-10-20 07:45:00,67.6,60.5,29.93,ENE,72,1.0,8.0,78,0.00,,---,0.00,12.00,VWS V14.01,2012-10-20 11:45:00,
2012-10-20 07:47:00,67.6,60.1,29.93,ENE,63,2.0,8.0,77,0.00,,---,0.00,14.00,VWS V14.01,2012-10-20 11:47:00,
2012-10-20 07:48:00,67.7,61.0,29.93,ENE,63,2.0,8.0,79,0.00,,---,0.00,12.00,VWS V14.01,2012-10-20 11:48:00,
2012-10-20 07:50:00,67.6,60.5,29.93,ENE,68,3.0,8.0,78,0.00,,---,0.00,16.00,VWS V14.01,2012-10-20 11:50:00,
2012-10-20 07:52:00,67.5,60.0,29.93,ENE,57,1.0,8.0,77,0.00,,---,0.00,18.00,VWS V14.01,2012-10-20 11:52:00,
2012-10-20 07:54:00,67.6,60.5,29.93,ENE,72,1.0,8.0,78,0.00,,---,0.00,12.00,VWS V14.01,2012-10-20 11:54:00,
2012-10-20 07:55:00,67.6,60.1,29.93,ENE,62,0.0,8.0,77,0.00,,---,0.00,19.00,VWS V14.01,2012-10-20 11:55:00,
2012-10-20 07:56:00,67.6,60.5,29.93,East,97,2.0,8.0,78,0.00,,---,0.00,19.00,VWS V14.01,2012-10-20 11:56:00,
2012-10-20 07:58:00,67.5,60.4,29.93,ENE,77,1.0,8.0,78,0.00,,---,0.00,21.00,VWS V14.01,2012-10-20 11:58:00,
2012-10-20 07:59:00,67.6,60.1,29.93,ENE,62,1.0,8.0,77,0.00,,---,0.00,16.00,VWS V14.01,2012-10-20 11:59:00,
2012-10-20 08:00:00,67.5,60.4,29.93,East,93,2.0,2.0,78,0.00,,---,0.00,21.00,VWS V14.01,2012-10-20 12:00:00,
2012-10-20 08:04:00,67.5,60.0,29.93,ENE,72,2.0,8.0,77,0.00,,---,0.00,18.00,VWS V14.01,2012-10-20 12:04:00,
2012-10-20 08:06:00,67.4,60.7,29.94,East,100,2.0,3.0,79,0.00,,---,0.00,26.00,VWS V14.01,2012-10-20 12:06:00,
2012-10-20 08:08:00,67.4,60.7,29.94,ENE,70,2.0,3.0,79,0.00,,---,0.00,32.00,VWS V14.01,2012-10-20 12:08:00,
2012-10-20 08:09:00,67.5,60.4,29.93,NNE,28,0.0,8.0,78,0.00,,---,0.00,21.00,VWS V14.01,2012-10-20 12:09:00,
2012-10-20 08:11:00,67.3,60.2,29.94,ENE,72,3.0,3.0,78,0.00,,---,0.00,32.00,VWS V14.01,2012-10-20 12:11:00,
2012-10-20 08:12:00,67.3,60.6,29.94,ENE,65,0.0,3.0,79,0.00,,---,0.00,30.00,VWS V14.01,2012-10-20 12:12:00,
2012-10-20 08:14:00,67.4,60.3,29.94,NNE,32,0.0,3.0,78,0.00,,---,0.00,25.00,VWS V14.01,2012-10-20 12:14:00,
2012-10-20 08:15:00,67.2,60.1,29.94,ENE,64,4.0,4.0,78,0.00,,---,0.00,32.00,VWS V14.01,2012-10-20 12:15:00,
2012-10-20 08:17:00,67.1,59.7,29.94,ENE,67,1.0,4.0,77,0.00,,---,0.00,33.00,VWS V14.01,2012-10-20 12:17:00,
2012-10-20 08:18:00,67.1,59.7,29.94,NE,55,0.0,4.0,77,0.00,,---,0.00,35.00,VWS V14.01,2012-10-20 12:18:00,
2012-10-20 08:19:00,67.4,60.3,29.94,ENE,65,1.0,3.0,78,0.00,,---,0.00,32.00,VWS V14.01,2012-10-20 12:19:00,
2012-10-20 08:21:00,67.1,60.0,29.94,ENE,67,3.0,4.0,78,0.00,,---,0.00,51.00,VWS V14.01,2012-10-20 12:21:00,
2012-10-20 08:22:00,67.0,59.6,29.94,ENE,64,1.0,4.0,77,0.00,,---,0.00,56.00,VWS V14.01,2012-10-20 12:22:00,
2012-10-20 08:23:00,67.0,59.6,29.94,ENE,64,0.0,4.0,77,0.00,,---,0.00,63.00,VWS V14.01,2012-10-20 12:23:00,
2012-10-20 08:24:00,67.2,60.1,29.94,ENE,77,0.0,3.0,78,0.00,,---,0.00,32.00,VWS V14.01,2012-10-20 12:24:00,
2012-10-20 08:26:00,67.0,59.6,29.94,NE,54,1.0,4.0,77,0.00,,---,0.00,79.00,VWS V14.01,2012-10-20 12:26:00,
2012-10-20 08:29:00,67.1,59.7,29.94,ENE,61,2.0,4.0,77,0.00,,---,0.00,35.00,VWS V14.01,2012-10-20 12:29:00,
2012-10-20 08:30:00,67.1,59.7,29.94,ENE,60,4.0,4.0,77,0.00,,---,0.00,63.00,VWS V14.01,2012-10-20 12:30:00,
2012-10-20 08:31:00,67.1,59.3,29.95,NE,46,1.0,5.0,76,0.00,,---,0.00,62.00,VWS V14.01,2012-10-20 12:31:00,
2012-10-20 08:32:00,67.1,59.7,29.94,NE,48,4.0,5.0,77,0.00,,---,0.00,62.00,VWS V14.01,2012-10-20 12:32:00,
2012-10-20 08:33:00,67.1,59.7,29.94,ENE,64,0.0,5.0,77,0.00,,---,0.00,60.00,VWS V14.01,2012-10-20 12:33:00,
2012-10-20 08:34:00,67.0,59.6,29.94,ENE,64,2.0,4.0,77,0.00,,---,0.00,76.00,VWS V14.01,2012-10-20 12:34:00,
2012-10-20 08:35:00,67.2,59.4,29.94,ENE,70,2.0,6.0,76,0.00,,---,0.00,60.00,VWS V14.01,2012-10-20 12:35:00,
2012-10-20 08:36:00,67.2,59.4,29.94,ENE,60,1.0,6.0,76,0.00,,---,0.00,65.00,VWS V14.01,2012-10-20 12:36:00,
2012-10-20 08:37:00,67.3,59.8,29.94,East,81,0.0,6.0,77,0.00,,---,0.00,69.00,VWS V14.01,2012-10-20 12:37:00,
2012-10-20 08:38:00,67.3,59.8,29.95,East,80,1.0,6.0,77,0.00,,---,0.00,72.00,VWS V14.01,2012-10-20 12:38:00,
2012-10-20 08:39:00,67.0,59.6,29.95,ENE,67,1.0,4.0,77,0.00,,---,0.00,79.00,VWS V14.01,2012-10-20 12:39:00,
2012-10-20 08:42:00,67.4,60.0,29.95,East,80,2.0,6.0,77,0.00,,---,0.00,91.00,VWS V14.01,2012-10-20 12:42:00,
2012-10-20 08:43:00,67.5,60.0,29.95,ENE,66,0.0,6.0,77,0.00,,---,0.00,98.00,VWS V14.01,2012-10-20 12:43:00,
2012-10-20 08:44:00,67.2,59.4,29.94,ENE,70,2.0,6.0,76,0.00,,---,0.00,60.00,VWS V14.01,2012-10-20 12:44:00,
2012-10-20 08:46:00,67.6,60.1,29.95,NE,56,0.0,6.0,77,0.00,,---,0.00,107.00,VWS V14.01,2012-10-20 12:46:00,
2012-10-20 08:49:00,67.4,60.0,29.95,ENE,66,1.0,6.0,77,0.00,,---,0.00,74.00,VWS V14.01,2012-10-20 12:49:00,
2012-10-20 08:54:00,67.5,60.4,29.95,ENE,58,2.0,6.0,78,0.00,,---,0.00,98.00,VWS V14.01,2012-10-20 12:54:00,
2012-10-20 08:56:00,68.2,60.0,29.95,ENE,62,0.0,6.0,75,0.00,,---,0.00,151.00,VWS V14.01,2012-10-20 12:56:00,
2012-10-20 08:59:00,67.7,59.9,29.95,NNE,24,1.0,6.0,76,0.00,,---,0.00,109.00,VWS V14.01,2012-10-20 12:59:00,
2012-10-20 09:00:00,67.5,60.4,29.93,NNE,28,0.0,8.0,78,0.00,,---,0.00,21.00,VWS V14.01,2012-10-20 13:00:00,
2012-10-20 09:02:00,68.6,60.0,29.95,ENE,77,2.0,6.0,74,0.00,,---,0.00,60.00,VWS V14.01,2012-10-20 13:02:00,
2012-10-20 09:04:00,68.1,60.6,29.95,ENE,63,4.0,6.0,77,0.00,,---,0.00,248.00,VWS V14.01,2012-10-20 13:04:00,
2012-10-20 09:06:00,68.7,59.7,29.95,ENE,72,0.0,6.0,73,0.00,,---,0.00,60.00,VWS V14.01,2012-10-20 13:06:00,
2012-10-20 09:07:00,68.8,59.8,29.95,East,80,1.0,6.0,73,0.00,,---,0.00,60.00,VWS V14.01,2012-10-20 13:07:00,
2012-10-20 09:08:00,68.8,60.2,29.95,East,80,0.0,6.0,74,0.00,,---,0.00,60.00,VWS V14.01,2012-10-20 13:08:00,
2012-10-20 09:09:00,68.5,60.3,29.95,NE,54,3.0,3.0,75,0.00,,---,0.00,53.00,VWS V14.01,2012-10-20 13:09:00,
2012-10-20 09:10:00,68.8,59.8,29.95,ENE,59,3.0,6.0,73,0.00,,---,0.00,114.00,VWS V14.01,2012-10-20 13:10:00,
2012-10-20 09:11:00,68.9,59.5,29.95,NE,46,0.0,6.0,72,0.00,,---,0.00,114.00,VWS V14.01,2012-10-20 13:11:00,
2012-10-20 09:14:00,68.7,59.7,29.95,East,85,1.0,6.0,73,0.00,,---,0.00,54.00,VWS V14.01,2012-10-20 13:14:00,
2012-10-20 09:16:00,69.1,59.7,29.96,ENE,62,0.0,6.0,72,0.00,,---,0.00,86.00,VWS V14.01,2012-10-20 13:16:00,
2012-10-20 09:17:00,69.2,59.8,29.95,ENE,77,0.0,6.0,72,0.00,,---,0.00,62.00,VWS V14.01,2012-10-20 13:17:00,
2012-10-20 09:18:00,69.3,59.9,29.95,ENE,78,3.0,6.0,72,0.00,,---,0.00,86.00,VWS V14.01,2012-10-20 13:18:00,
2012-10-20 09:19:00,68.8,60.2,29.95,East,79,3.0,6.0,74,0.00,,---,0.00,114.00,VWS V14.01,2012-10-20 13:19:00,
2012-10-20 09:22:00,69.5,60.1,29.95,ENE,74,2.0,6.0,72,0.00,,---,0.00,234.00,VWS V14.01,2012-10-20 13:22:00,
2012-10-20 09:23:00,69.7,60.3,29.96,ENE,66,2.0,6.0,72,0.00,,---,0.00,200.00,VWS V14.01,2012-10-20 13:23:00,
2012-10-20 09:24:00,69.0,59.2,29.96,East,87,5.0,6.0,71,0.00,,---,0.00,146.00,VWS V14.01,2012-10-20 13:24:00,
2012-10-20 09:28:00,70.1,60.7,29.96,SE,134,1.0,6.0,72,0.00,,---,0.00,188.00,VWS V14.01,2012-10-20 13:28:00,
2012-10-20 09:29:00,69.4,60.0,29.96,NNE,12,1.0,6.0,72,0.00,,---,0.00,83.00,VWS V14.01,2012-10-20 13:29:00,
2012-10-20 09:31:00,70.3,60.9,29.96,SE,134,0.0,6.0,72,0.00,,---,0.00,86.00,VWS V14.01,2012-10-20 13:31:00,
2012-10-20 09:32:00,70.4,61.3,29.96,East,89,0.0,6.0,73,0.00,,---,0.00,81.00,VWS V14.01,2012-10-20 13:32:00,
2012-10-20 09:34:00,69.7,59.9,29.96,NE,42,0.0,6.0,71,0.00,,---,0.00,200.00,VWS V14.01,2012-10-20 13:34:00,
2012-10-20 09:35:00,70.7,61.2,29.96,NNE,31,1.0,6.0,72,0.00,,---,0.00,178.00,VWS V14.01,2012-10-20 13:35:00,
2012-10-20 09:37:00,70.9,61.0,29.96,WSW,241,2.0,6.0,71,0.00,,---,0.00,230.00,VWS V14.01,2012-10-20 13:37:00,
2012-10-20 09:38:00,70.9,61.0,29.96,East,82,1.0,6.0,71,0.00,,---,0.00,227.00,VWS V14.01,2012-10-20 13:38:00,
2012-10-20 09:39:00,70.2,60.8,29.96,SE,134,0.0,6.0,72,0.00,,---,0.00,104.00,VWS V14.01,2012-10-20 13:39:00,
2012-10-20 09:40:00,71.1,60.4,29.96,East,83,2.0,7.0,69,0.00,,---,0.00,148.00,VWS V14.01,2012-10-20 13:40:00,
2012-10-20 09:43:00,71.4,59.5,29.96,ENE,77,0.0,7.0,66,0.00,,---,0.00,148.00,VWS V14.01,2012-10-20 13:43:00,
2012-10-20 09:44:00,70.6,61.1,29.96,NE,34,2.0,6.0,72,0.00,,---,0.00,178.00,VWS V14.01,2012-10-20 13:44:00,
2012-10-20 09:46:00,71.7,61.4,29.96,NE,35,0.0,7.0,70,0.00,,---,0.00,323.00,VWS V14.01,2012-10-20 13:46:00,
2012-10-20 09:48:00,71.8,61.5,29.96,NNW,331,0.0,7.0,70,0.00,,---,0.00,283.00,VWS V14.01,2012-10-20 13:48:00,
2012-10-20 09:49:00,71.1,61.2,29.96,ENE,60,7.0,7.0,71,0.00,,---,0.00,148.00,VWS V14.01,2012-10-20 13:49:00,
2012-10-20 09:51:00,72.0,61.7,29.96,East,92,1.0,7.0,70,0.00,,---,0.00,432.00,VWS V14.01,2012-10-20 13:51:00,
2012-10-20 09:52:00,72.1,61.4,29.96,ENE,58,1.0,7.0,69,0.00,,---,0.00,367.00,VWS V14.01,2012-10-20 13:52:00,
2012-10-20 09:54:00,71.6,61.3,29.96,South,174,0.0,7.0,70,0.00,,---,0.00,323.00,VWS V14.01,2012-10-20 13:54:00,
2012-10-20 09:55:00,72.3,60.7,29.96,NNW,337,0.0,7.0,67,0.00,,---,0.00,461.00,VWS V14.01,2012-10-20 13:55:00,
2012-10-20 09:58:00,72.5,62.2,29.96,NW,318,0.0,7.0,70,0.00,,---,0.00,276.00,VWS V14.01,2012-10-20 13:58:00,
2012-10-20 09:59:00,71.9,61.6,29.96,NW,320,0.0,7.0,70,0.00,,---,0.00,374.00,VWS V14.01,2012-10-20 13:59:00,
2012-10-20 10:00:00,72.6,62.3,29.96,NE,51,1.0,1.0,70,0.00,,---,0.00,276.00,VWS V14.01,2012-10-20 14:00:00,
2012-10-20 10:01:00,72.6,61.9,29.96,East,91,0.0,2.0,69,0.00,,---,0.00,276.00,VWS V14.01,2012-10-20 14:01:00,
2012-10-20 10:03:00,72.8,60.8,29.96,NE,34,0.0,3.0,66,0.00,,---,0.00,139.00,VWS V14.01,2012-10-20 14:03:00,
2012-10-20 10:04:00,72.3,60.7,29.96,NW,312,2.0,7.0,67,0.00,,---,0.00,461.00,VWS V14.01,2012-10-20 14:04:00,
2012-10-20 10:05:00,72.9,60.9,29.97,NNW,333,0.0,3.0,66,0.00,,---,0.00,151.00,VWS V14.01,2012-10-20 14:05:00,
2012-10-20 10:08:00,73.4,60.5,29.96,NNE,26,0.0,3.0,64,0.00,,---,0.00,197.00,VWS V14.01,2012-10-20 14:08:00,
2012-10-20 10:09:00,72.5,62.2,29.96,NW,309,0.0,0.0,70,0.00,,---,0.00,276.00,VWS V14.01,2012-10-20 14:09:00,
2012-10-20 10:11:00,73.7,62.5,29.97,NNW,331,1.0,3.0,68,0.00,,---,0.00,526.00,VWS V14.01,2012-10-20 14:11:00,
2012-10-20 10:14:00,72.9,61.3,29.97,NNE,21,1.0,3.0,67,0.00,,---,0.00,162.00,VWS V14.01,2012-10-20 14:14:00,
2012-10-20 10:15:00,73.8,62.2,29.96,NNW,333,1.0,3.0,67,0.00,,---,0.00,543.00,VWS V14.01,2012-10-20 14:15:00,
2012-10-20 10:17:00,73.7,61.7,29.97,NNW,334,0.0,3.0,66,0.00,,---,0.00,545.00,VWS V14.01,2012-10-20 14:17:00,
2012-10-20 10:19:00,73.6,61.1,29.97,NNE,23,0.0,3.0,65,0.00,,---,0.00,496.00,VWS V14.01,2012-10-20 14:19:00,
2012-10-20 10:21:00,73.8,61.7,29.97,NE,41,1.0,3.0,66,0.00,,---,0.00,566.00,VWS V14.01,2012-10-20 14:21:00,
2012-10-20 10:22:00,73.9,60.5,29.97,NE,41,0.0,3.0,63,0.00,,---,0.00,566.00,VWS V14.01,2012-10-20 14:22:00,
2012-10-20 10:23:00,74.0,61.5,29.97,NE,41,0.0,3.0,65,0.00,,---,0.00,573.00,VWS V14.01,2012-10-20 14:23:00,
2012-10-20 10:24:00,73.8,62.2,29.96,NNW,345,1.0,3.0,67,0.00,,---,0.00,538.00,VWS V14.01,2012-10-20 14:24:00,
2012-10-20 10:25:00,74.2,61.7,29.96,ENE,66,1.0,3.0,65,0.00,,---,0.00,566.00,VWS V14.01,2012-10-20 14:25:00,
2012-10-20 10:27:00,74.4,62.7,29.96,North,356,0.0,3.0,67,0.00,,---,0.00,503.00,VWS V14.01,2012-10-20 14:27:00,
2012-10-20 10:29:00,73.8,61.7,29.97,NNW,334,0.0,3.0,66,0.00,,---,0.00,561.00,VWS V14.01,2012-10-20 14:29:00,
2012-10-20 10:31:00,74.6,61.2,29.97,East,82,0.0,3.0,63,0.00,,---,0.00,329.00,VWS V14.01,2012-10-20 14:31:00,
2012-10-20 10:32:00,74.6,62.1,29.97,NNW,339,1.0,3.0,65,0.00,,---,0.00,329.00,VWS V14.01,2012-10-20 14:32:00,
2012-10-20 10:33:00,74.8,62.7,29.96,NE,43,1.0,3.0,66,0.00,,---,0.00,605.00,VWS V14.01,2012-10-20 14:33:00,
2012-10-20 10:34:00,74.2,62.1,29.96,ENE,64,2.0,3.0,66,0.00,,---,0.00,566.00,VWS V14.01,2012-10-20 14:34:00,
2012-10-20 10:35:00,75.1,63.0,29.96,NE,44,1.0,3.0,66,0.00,,---,0.00,612.00,VWS V14.01,2012-10-20 14:35:00,
2012-10-20 10:37:00,75.3,61.8,29.96,NNE,21,2.0,5.0,63,0.00,,---,0.00,617.00,VWS V14.01,2012-10-20 14:37:00,
2012-10-20 10:39:00,74.4,61.9,29.96,North,358,0.0,3.0,65,0.00,,---,0.00,503.00,VWS V14.01,2012-10-20 14:39:00,
2012-10-20 10:41:00,75.2,62.6,29.96,NW,320,0.0,5.0,65,0.00,,---,0.00,629.00,VWS V14.01,2012-10-20 14:41:00,
2012-10-20 10:44:00,75.4,61.9,29.96,NNE,33,0.0,5.0,63,0.00,,---,0.00,640.00,VWS V14.01,2012-10-20 14:44:00,
2012-10-20 10:45:00,75.4,61.9,29.96,NNE,31,1.0,5.0,63,0.00,,---,0.00,642.00,VWS V14.01,2012-10-20 14:45:00,
2012-10-20 10:49:00,75.3,62.3,29.96,North,357,0.0,5.0,64,0.00,,---,0.00,624.00,VWS V14.01,2012-10-20 14:49:00,
2012-10-20 10:53:00,75.8,63.2,29.96,NNE,27,1.0,5.0,65,0.00,,---,0.00,663.00,VWS V14.01,2012-10-20 14:53:00,
2012-10-20 10:54:00,75.4,61.9,29.96,NE,47,3.0,5.0,63,0.00,,---,0.00,640.00,VWS V14.01,2012-10-20 14:54:00,
2012-10-20 10:56:00,76.1,63.5,29.96,ENE,75,3.0,6.0,65,0.00,,---,0.00,666.00,VWS V14.01,2012-10-20 14:56:00,
2012-10-20 10:57:00,76.1,62.6,29.96,ENE,65,0.0,6.0,63,0.00,,---,0.00,670.00,VWS V14.01,2012-10-20 14:57:00,
2012-10-20 10:59:00,75.7,62.7,29.96,NW,316,2.0,5.0,64,0.00,,---,0.00,652.00,VWS V14.01,2012-10-20 14:59:00,
2012-10-20 11:00:00,76.3,64.1,29.96,North,6,0.0,1.0,66,0.00,,---,0.00,679.00,VWS V14.01,2012-10-20 15:00:00,
2012-10-20 11:01:00,76.3,64.1,29.96,North,6,0.0,1.0,66,0.00,,---,0.00,679.00,VWS V14.01,2012-10-20 15:01:00,
2012-10-20 11:02:00,76.4,63.8,29.96,North,6,1.0,1.0,65,0.00,,---,0.00,684.00,VWS V14.01,2012-10-20 15:02:00,
2012-10-20 11:03:00,76.4,63.8,29.96,North,352,1.0,1.0,65,0.00,,---,0.00,686.00,VWS V14.01,2012-10-20 15:03:00,
2012-10-20 11:04:00,76.0,64.3,29.96,NNE,28,0.0,5.0,67,0.00,,---,0.00,664.00,VWS V14.01,2012-10-20 15:04:00,
2012-10-20 11:05:00,76.1,63.5,29.96,North,352,0.0,1.0,65,0.00,,---,0.00,689.00,VWS V14.01,2012-10-20 15:05:00,
2012-10-20 11:07:00,76.0,63.0,29.96,NW,320,1.0,2.0,64,0.00,,---,0.00,691.00,VWS V14.01,2012-10-20 15:07:00,
2012-10-20 11:09:00,76.3,64.1,29.96,North,6,0.0,1.0,66,0.00,,---,0.00,679.00,VWS V14.01,2012-10-20 15:09:00,
2012-10-20 11:10:00,76.1,64.4,29.96,ESE,111,0.0,2.0,67,0.00,,---,0.00,701.00,VWS V14.01,2012-10-20 15:10:00,
2012-10-20 11:12:00,76.5,63.4,29.96,NNW,332,1.0,2.0,64,0.00,,---,0.00,703.00,VWS V14.01,2012-10-20 15:12:00,
2012-10-20 11:14:00,76.1,63.5,29.96,North,352,0.0,1.0,65,0.00,,---,0.00,689.00,VWS V14.01,2012-10-20 15:14:00,
2012-10-20 11:15:00,76.8,63.3,29.96,NE,56,1.0,2.0,63,0.00,,---,0.00,712.00,VWS V14.01,2012-10-20 15:15:00,
2012-10-20 11:19:00,76.1,64.4,29.96,ESE,111,1.0,2.0,67,0.00,,---,0.00,701.00,VWS V14.01,2012-10-20 15:19:00,
2012-10-20 11:20:00,77.1,62.2,29.96,NW,316,3.0,3.0,60,0.00,,---,0.00,719.00,VWS V14.01,2012-10-20 15:20:00,
2012-10-20 11:21:00,76.9,62.4,29.96,East,88,1.0,3.0,61,0.00,,---,0.00,719.00,VWS V14.01,2012-10-20 15:21:00,
2012-10-20 11:23:00,77.2,65.0,29.96,NNW,328,0.0,3.0,66,0.00,,---,0.00,719.00,VWS V14.01,2012-10-20 15:23:00,
2012-10-20 11:24:00,76.7,63.2,29.96,NE,56,1.0,2.0,63,0.00,,---,0.00,712.00,VWS V14.01,2012-10-20 15:24:00,
2012-10-20 11:25:00,77.3,63.3,29.96,North,351,2.0,3.0,62,0.00,,---,0.00,728.00,VWS V14.01,2012-10-20 15:25:00,
2012-10-20 11:27:00,77.3,63.3,29.96,NNE,14,0.0,3.0,62,0.00,,---,0.00,731.00,VWS V14.01,2012-10-20 15:27:00,
2012-10-20 11:28:00,77.4,63.4,29.96,NE,56,3.0,7.0,62,0.00,,---,0.00,731.00,VWS V14.01,2012-10-20 15:28:00,
2012-10-20 11:30:00,77.0,62.1,29.96,NW,320,0.0,3.0,60,0.00,,---,0.00,719.00,VWS V14.01,2012-10-20 15:30:00,
2012-10-20 11:31:00,77.2,63.2,29.96,NE,43,1.0,7.0,62,0.00,,---,0.00,738.00,VWS V14.01,2012-10-20 15:31:00,
2012-10-20 11:35:00,77.3,63.3,29.96,North,351,1.0,3.0,62,0.00,,---,0.00,728.00,VWS V14.01,2012-10-20 15:35:00,
2012-10-20 11:36:00,77.5,63.5,29.96,NE,55,4.0,7.0,62,0.00,,---,0.00,747.00,VWS V14.01,2012-10-20 15:36:00,
2012-10-20 11:37:00,77.6,63.6,29.96,NE,45,2.0,7.0,62,0.00,,---,0.00,747.00,VWS V14.01,2012-10-20 15:37:00,
2012-10-20 11:38:00,77.6,63.1,29.96,NE,41,1.0,7.0,61,0.00,,---,0.00,749.00,VWS V14.01,2012-10-20 15:38:00,
2012-10-20 11:39:00,77.7,63.2,29.96,WNW,301,1.0,7.0,61,0.00,,---,0.00,749.00,VWS V14.01,2012-10-20 15:39:00,
2012-10-20 11:40:00,77.3,62.3,29.96,NNW,339,1.0,7.0,60,0.00,,---,0.00,737.00,VWS V14.01,2012-10-20 15:40:00,
2012-10-20 11:41:00,77.5,63.9,29.96,NNE,19,0.0,7.0,63,0.00,,---,0.00,752.00,VWS V14.01,2012-10-20 15:41:00,
2012-10-20 11:42:00,77.6,64.0,29.96,North,2,5.0,7.0,63,0.00,,---,0.00,756.00,VWS V14.01,2012-10-20 15:42:00,
2012-10-20 11:43:00,77.6,63.1,29.95,NW,322,0.0,7.0,61,0.00,,---,0.00,759.00,VWS V14.01,2012-10-20 15:43:00,
2012-10-20 11:44:00,77.6,63.6,29.96,NNE,24,0.0,7.0,62,0.00,,---,0.00,759.00,VWS V14.01,2012-10-20 15:44:00,
2012-10-20 11:45:00,77.5,64.4,29.96,NE,48,1.0,7.0,64,0.00,,---,0.00,742.00,VWS V14.01,2012-10-20 15:45:00,
2012-10-20 11:48:00,77.7,63.2,29.95,NE,50,2.0,7.0,61,0.00,,---,0.00,763.00,VWS V14.01,2012-10-20 15:48:00,
2012-10-20 11:50:00,77.6,63.6,29.96,NW,326,2.0,7.0,62,0.00,,---,0.00,752.00,VWS V14.01,2012-10-20 15:50:00,
2012-10-20 11:51:00,78.1,63.6,29.95,NNW,335,1.0,7.0,61,0.00,,---,0.00,770.00,VWS V14.01,2012-10-20 15:51:00,
2012-10-20 11:55:00,77.7,64.6,29.95,NNE,14,1.0,7.0,64,0.00,,---,0.00,763.00,VWS V14.01,2012-10-20 15:55:00,
2012-10-20 11:56:00,78.3,64.7,29.95,ENE,62,0.0,7.0,63,0.00,,---,0.00,779.00,VWS V14.01,2012-10-20 15:56:00,
2012-10-20 11:58:00,78.4,64.3,29.95,NW,316,1.0,7.0,62,0.00,,---,0.00,780.00,VWS V14.01,2012-10-20 15:58:00,
2012-10-20 12:00:00,78.0,63.0,29.95,NNW,343,3.0,7.0,60,0.00,,---,0.00,770.00,VWS V14.01,2012-10-20 16:00:00,
2012-10-20 12:03:00,78.4,62.9,29.95,NNW,345,0.0,4.0,59,0.00,,---,0.00,786.00,VWS V14.01,2012-10-20 16:03:00,
2012-10-20 12:04:00,78.5,63.5,29.95,ENE,59,1.0,4.0,60,0.00,,---,0.00,761.00,VWS V14.01,2012-10-20 16:04:00,
2012-10-20 12:05:00,78.3,63.8,29.95,ENE,62,0.0,7.0,61,0.00,,---,0.00,779.00,VWS V14.01,2012-10-20 16:05:00,
2012-10-20 12:06:00,78.7,62.7,29.95,NW,311,4.0,4.0,58,0.00,,---,0.00,761.00,VWS V14.01,2012-10-20 16:06:00,
2012-10-20 12:07:00,78.6,62.1,29.95,NW,323,1.0,4.0,57,0.00,,---,0.00,793.00,VWS V14.01,2012-10-20 16:07:00,
2012-10-20 12:08:00,78.6,63.6,29.95,NW,316,1.0,5.0,60,0.00,,---,0.00,798.00,VWS V14.01,2012-10-20 16:08:00,
2012-10-20 12:09:00,78.5,62.5,29.95,North,8,0.0,5.0,58,0.00,,---,0.00,800.00,VWS V14.01,2012-10-20 16:09:00,
2012-10-20 12:10:00,78.4,64.3,29.95,NW,316,1.0,2.0,62,0.00,,---,0.00,782.00,VWS V14.01,2012-10-20 16:10:00,
2012-10-20 12:12:00,78.7,63.2,29.95,NNW,347,1.0,5.0,59,0.00,,---,0.00,802.00,VWS V14.01,2012-10-20 16:12:00,
2012-10-20 12:14:00,78.8,63.3,29.95,NNW,341,3.0,7.0,59,0.00,,---,0.00,807.00,VWS V14.01,2012-10-20 16:14:00,
2012-10-20 12:15:00,78.7,64.1,29.95,NE,54,2.0,4.0,61,0.00,,---,0.00,761.00,VWS V14.01,2012-10-20 16:15:00,
2012-10-20 12:16:00,79.0,63.9,29.95,NNW,329,3.0,7.0,60,0.00,,---,0.00,809.00,VWS V14.01,2012-10-20 16:16:00,
2012-10-20 12:17:00,79.0,62.5,29.95,NNW,344,4.0,7.0,57,0.00,,---,0.00,809.00,VWS V14.01,2012-10-20 16:17:00,
2012-10-20 12:18:00,78.9,62.4,29.95,NNW,334,2.0,7.0,57,0.00,,---,0.00,809.00,VWS V14.01,2012-10-20 16:18:00,
2012-10-20 12:20:00,78.5,63.0,29.95,North,8,1.0,5.0,59,0.00,,---,0.00,802.00,VWS V14.01,2012-10-20 16:20:00,
2012-10-20 12:22:00,78.9,62.4,29.95,NNW,341,3.0,9.0,57,0.00,,---,0.00,763.00,VWS V14.01,2012-10-20 16:22:00,
2012-10-20 12:23:00,78.8,61.3,29.95,NNW,347,2.0,9.0,55,0.00,,---,0.00,814.00,VWS V14.01,2012-10-20 16:23:00,
2012-10-20 12:24:00,78.8,62.3,29.95,NNW,348,2.0,9.0,57,0.00,,---,0.00,814.00,VWS V14.01,2012-10-20 16:24:00,
2012-10-20 12:25:00,79.0,63.5,29.95,NE,43,1.0,7.0,59,0.00,,---,0.00,809.00,VWS V14.01,2012-10-20 16:25:00,
2012-10-20 12:26:00,78.7,62.7,29.95,North,355,0.0,9.0,58,0.00,,---,0.00,817.00,VWS V14.01,2012-10-20 16:26:00,
2012-10-20 12:28:00,78.6,61.6,29.95,East,84,1.0,9.0,56,0.00,,---,0.00,819.00,VWS V14.01,2012-10-20 16:28:00,
2012-10-20 12:29:00,78.5,61.5,29.95,SW,232,2.0,9.0,56,0.00,,---,0.00,819.00,VWS V14.01,2012-10-20 16:29:00,
2012-10-20 12:30:00,78.9,62.4,29.95,NNW,334,4.0,7.0,57,0.00,,---,0.00,812.00,VWS V14.01,2012-10-20 16:30:00,
2012-10-20 12:31:00,78.9,61.9,29.94,West,272,0.0,9.0,56,0.00,,---,0.00,821.00,VWS V14.01,2012-10-20 16:31:00,
2012-10-20 12:32:00,79.1,62.1,29.94,West,274,0.0,9.0,56,0.00,,---,0.00,823.00,VWS V14.01,2012-10-20 16:32:00,
2012-10-20 12:35:00,78.7,62.7,29.95,NNW,329,0.0,9.0,58,0.00,,---,0.00,816.00,VWS V14.01,2012-10-20 16:35:00,
2012-10-20 12:36:00,79.5,62.5,29.94,NNW,347,1.0,9.0,56,0.00,,---,0.00,823.00,VWS V14.01,2012-10-20 16:36:00,
2012-10-20 12:37:00,79.4,62.9,29.94,WNW,289,1.0,9.0,57,0.00,,---,0.00,824.00,VWS V14.01,2012-10-20 16:37:00,
2012-10-20 12:40:00,78.7,61.7,29.94,SW,220,1.0,9.0,56,0.00,,---,0.00,821.00,VWS V14.01,2012-10-20 16:40:00,
2012-10-20 12:42:00,79.6,63.0,29.94,NNE,20,0.0,9.0,57,0.00,,---,0.00,823.00,VWS V14.01,2012-10-20 16:42:00,
2012-10-20 12:43:00,79.6,64.0,29.94,NNE,20,0.0,9.0,59,0.00,,---,0.00,826.00,VWS V14.01,2012-10-20 16:43:00,
2012-10-20 12:44:00,79.5,63.0,29.94,NE,39,4.0,9.0,57,0.00,,---,0.00,830.00,VWS V14.01,2012-10-20 16:44:00,
2012-10-20 12:45:00,79.5,62.5,29.94,NNW,347,0.0,9.0,56,0.00,,---,0.00,823.00,VWS V14.01,2012-10-20 16:45:00,
2012-10-20 12:47:00,79.5,63.0,29.94,NNW,346,0.0,9.0,57,0.00,,---,0.00,828.00,VWS V14.01,2012-10-20 16:47:00,
2012-10-20 12:48:00,79.5,63.9,29.93,NNW,346,1.0,9.0,59,0.00,,---,0.00,828.00,VWS V14.01,2012-10-20 16:48:00,
2012-10-20 12:50:00,79.5,63.4,29.94,East,82,3.0,9.0,58,0.00,,---,0.00,824.00,VWS V14.01,2012-10-20 16:50:00,
2012-10-20 12:51:00,79.7,64.6,29.94,NNW,344,1.0,9.0,60,0.00,,---,0.00,828.00,VWS V14.01,2012-10-20 16:51:00,
2012-10-20 12:52:00,79.8,63.2,29.94,NE,51,2.0,9.0,57,0.00,,---,0.00,833.00,VWS V14.01,2012-10-20 16:52:00,
2012-10-20 12:53:00,79.9,64.3,29.94,NE,51,0.0,9.0,59,0.00,,---,0.00,835.00,VWS V14.01,2012-10-20 16:53:00,
2012-10-20 12:55:00,79.5,61.4,29.94,NE,56,2.0,9.0,54,0.00,,---,0.00,830.00,VWS V14.01,2012-10-20 16:55:00,
2012-10-20 12:57:00,80.0,62.4,29.93,NNE,20,1.0,9.0,55,0.00,,---,0.00,835.00,VWS V14.01,2012-10-20 16:57:00,
2012-10-20 12:59:00,79.7,62.6,29.94,NNW,343,0.0,9.0,56,0.00,,---,0.00,835.00,VWS V14.01,2012-10-20 16:59:00,
2012-10-20 13:00:00,79.7,64.6,29.94,NNW,344,0.0,9.0,60,0.00,,---,0.00,828.00,VWS V14.01,2012-10-20 17:00:00,
2012-10-20 13:02:00,79.6,63.0,29.94,ENE,70,3.0,3.0,57,0.00,,---,0.00,830.00,VWS V14.01,2012-10-20 17:02:00,
2012-10-20 13:05:00,80.1,62.5,29.93,NNE,32,1.0,9.0,55,0.00,,---,0.00,835.00,VWS V14.01,2012-10-20 17:05:00,
2012-10-20 13:06:00,79.6,60.4,29.93,NNE,27,2.0,5.0,52,0.00,,---,0.00,837.00,VWS V14.01,2012-10-20 17:06:00,
2012-10-20 13:08:00,79.5,60.3,29.93,NW,314,0.0,5.0,52,0.00,,---,0.00,837.00,VWS V14.01,2012-10-20 17:08:00,
2012-10-20 13:10:00,79.6,60.4,29.93,NNW,340,2.0,2.0,52,0.00,,---,0.00,833.00,VWS V14.01,2012-10-20 17:10:00,
2012-10-20 13:11:00,80.0,61.9,29.93,NW,324,2.0,5.0,54,0.00,,---,0.00,837.00,VWS V14.01,2012-10-20 17:11:00,
2012-10-20 13:12:00,80.1,63.0,29.93,ESE,106,2.0,5.0,56,0.00,,---,0.00,835.00,VWS V14.01,2012-10-20 17:12:00,
2012-10-20 13:15:00,79.6,60.4,29.93,NW,323,1.0,5.0,52,0.00,,---,0.00,833.00,VWS V14.01,2012-10-20 17:15:00,
2012-10-20 13:20:00,80.0,61.9,29.93,NW,322,2.0,5.0,54,0.00,,---,0.00,837.00,VWS V14.01,2012-10-20 17:20:00,
2012-10-20 13:21:00,80.7,64.1,29.92,NW,325,0.0,5.0,57,0.00,,---,0.00,831.00,VWS V14.01,2012-10-20 17:21:00,
2012-10-20 13:23:00,80.8,63.7,29.92,NNW,347,2.0,5.0,56,0.00,,---,0.00,831.00,VWS V14.01,2012-10-20 17:23:00,
2012-10-20 13:25:00,80.4,62.2,29.92,SSW,198,0.0,5.0,54,0.00,,---,0.00,837.00,VWS V14.01,2012-10-20 17:25:00,
2012-10-20 13:30:00,80.7,64.1,29.92,NW,325,0.0,5.0,57,0.00,,---,0.00,831.00,VWS V14.01,2012-10-20 17:30:00,
2012-10-20 13:31:00,80.3,60.5,29.92,NW,316,2.0,9.0,51,0.00,,---,0.00,833.00,VWS V14.01,2012-10-20 17:31:00,
2012-10-20 13:32:00,80.4,59.5,29.92,NNE,23,3.0,9.0,49,0.00,,---,0.00,833.00,VWS V14.01,2012-10-20 17:32:00,
2012-10-20 13:36:00,80.6,59.7,29.92,NW,320,7.0,9.0,49,0.00,,---,0.00,831.00,VWS V14.01,2012-10-20 17:36:00,
2012-10-20 13:37:00,80.7,60.3,29.92,NNE,12,1.0,9.0,50,0.00,,---,0.00,828.00,VWS V14.01,2012-10-20 17:37:00,
2012-10-20 13:38:00,80.6,60.3,29.92,NNW,331,1.0,9.0,50,0.00,,---,0.00,826.00,VWS V14.01,2012-10-20 17:38:00,
2012-10-20 13:41:00,80.3,60.5,29.92,NNE,14,4.0,9.0,51,0.00,,---,0.00,833.00,VWS V14.01,2012-10-20 17:41:00,
2012-10-20 13:46:00,80.6,61.4,29.92,NNW,347,2.0,9.0,52,0.00,,---,0.00,830.00,VWS V14.01,2012-10-20 17:46:00,
2012-10-20 13:49:00,80.7,60.9,29.91,NNW,347,1.0,9.0,51,0.00,,---,0.00,824.00,VWS V14.01,2012-10-20 17:49:00,
2012-10-20 13:51:00,80.7,59.2,29.92,NNW,329,1.0,9.0,48,0.00,,---,0.00,828.00,VWS V14.01,2012-10-20 17:51:00,
2012-10-20 13:53:00,80.6,60.3,29.91,NW,316,0.0,9.0,50,0.00,,---,0.00,823.00,VWS V14.01,2012-10-20 17:53:00,
2012-10-20 13:54:00,80.7,62.5,29.91,NW,316,0.0,9.0,54,0.00,,---,0.00,821.00,VWS V14.01,2012-10-20 17:54:00,
2012-10-20 13:56:00,80.6,59.1,29.91,NNW,347,3.0,9.0,48,0.00,,---,0.00,824.00,VWS V14.01,2012-10-20 17:56:00,
2012-10-20 13:57:00,80.8,59.3,29.91,ENE,68,2.0,9.0,48,0.00,,---,0.00,819.00,VWS V14.01,2012-10-20 17:57:00,
2012-10-20 13:59:00,80.7,59.2,29.91,NE,48,0.0,9.0,48,0.00,,---,0.00,817.00,VWS V14.01,2012-10-20 17:59:00,
2012-10-20 14:00:00,79.7,62.6,29.94,NNW,343,1.0,9.0,56,0.00,,---,0.00,833.00,VWS V14.01,2012-10-20 18:00:00,
2012-10-20 14:01:00,80.7,60.9,29.91,North,2,1.0,9.0,51,0.00,,---,0.00,826.00,VWS V14.01,2012-10-20 18:01:00,
2012-10-20 14:04:00,80.8,61.5,29.91,East,83,1.0,5.0,52,0.00,,---,0.00,814.00,VWS V14.01,2012-10-20 18:04:00,
2012-10-20 14:06:00,81.0,62.3,29.91,East,91,1.0,9.0,53,0.00,,---,0.00,819.00,VWS V14.01,2012-10-20 18:06:00,
2012-10-20 14:08:00,81.0,61.7,29.91,NW,321,3.0,5.0,52,0.00,,---,0.00,810.00,VWS V14.01,2012-10-20 18:08:00,
2012-10-20 14:10:00,81.0,59.5,29.90,NNE,30,0.0,5.0,48,0.00,,---,0.00,803.00,VWS V14.01,2012-10-20 18:10:00,
2012-10-20 14:11:00,80.7,60.3,29.91,NNW,341,1.0,4.0,50,0.00,,---,0.00,816.00,VWS V14.01,2012-10-20 18:11:00,
2012-10-20 14:13:00,81.1,59.6,29.90,WSW,252,2.0,5.0,48,0.00,,---,0.00,802.00,VWS V14.01,2012-10-20 18:13:00,
2012-10-20 14:15:00,81.1,59.0,29.90,NE,47,1.0,5.0,47,0.00,,---,0.00,800.00,VWS V14.01,2012-10-20 18:15:00,
2012-10-20 14:16:00,81.0,60.6,29.91,NNW,329,4.0,5.0,50,0.00,,---,0.00,810.00,VWS V14.01,2012-10-20 18:16:00,
2012-10-20 14:19:00,81.2,60.8,29.90,NNW,338,1.0,5.0,50,0.00,,---,0.00,791.00,VWS V14.01,2012-10-20 18:19:00,
2012-10-20 14:21:00,81.0,59.5,29.90,West,264,0.0,5.0,48,0.00,,---,0.00,803.00,VWS V14.01,2012-10-20 18:21:00,
2012-10-20 14:22:00,81.2,61.4,29.90,NW,326,1.0,5.0,51,0.00,,---,0.00,791.00,VWS V14.01,2012-10-20 18:22:00,
2012-10-20 14:24:00,81.3,60.9,29.90,NNW,329,1.0,5.0,50,0.00,,---,0.00,788.00,VWS V14.01,2012-10-20 18:24:00,
2012-10-20 14:26:00,81.1,60.2,29.90,NW,312,1.0,5.0,49,0.00,,---,0.00,800.00,VWS V14.01,2012-10-20 18:26:00,
2012-10-20 14:27:00,81.6,60.0,29.90,NNW,343,0.0,5.0,48,0.00,,---,0.00,784.00,VWS V14.01,2012-10-20 18:27:00,
2012-10-20 14:29:00,81.6,60.0,29.90,NW,322,2.0,5.0,48,0.00,,---,0.00,782.00,VWS V14.01,2012-10-20 18:29:00,
2012-10-20 14:31:00,81.2,60.8,29.90,NW,326,1.0,5.0,50,0.00,,---,0.00,791.00,VWS V14.01,2012-10-20 18:31:00,
2012-10-20 14:32:00,81.6,61.2,29.90,NNE,13,3.0,6.0,50,0.00,,---,0.00,772.00,VWS V14.01,2012-10-20 18:32:00,
2012-10-20 14:36:00,81.6,59.4,29.90,NNW,343,0.0,5.0,47,0.00,,---,0.00,784.00,VWS V14.01,2012-10-20 18:36:00,
2012-10-20 14:38:00,81.3,62.0,29.89,NNE,24,1.0,6.0,52,0.00,,---,0.00,763.00,VWS V14.01,2012-10-20 18:38:00,
2012-10-20 14:39:00,81.4,62.1,29.89,North,357,4.0,6.0,52,0.00,,---,0.00,758.00,VWS V14.01,2012-10-20 18:39:00,
2012-10-20 14:41:00,81.6,62.3,29.90,North,350,4.0,5.0,52,0.00,,---,0.00,772.00,VWS V14.01,2012-10-20 18:41:00,
2012-10-20 14:43:00,81.6,63.4,29.89,NNW,338,1.0,6.0,54,0.00,,---,0.00,752.00,VWS V14.01,2012-10-20 18:43:00,
2012-10-20 14:44:00,81.6,61.2,29.89,NNE,20,1.0,6.0,50,0.00,,---,0.00,752.00,VWS V14.01,2012-10-20 18:44:00,
2012-10-20 14:46:00,81.2,60.2,29.89,ENE,74,4.0,6.0,49,0.00,,---,0.00,763.00,VWS V14.01,2012-10-20 18:46:00,
2012-10-20 14:47:00,81.8,61.9,29.89,ENE,57,0.0,6.0,51,0.00,,---,0.00,751.00,VWS V14.01,2012-10-20 18:47:00,
2012-10-20 14:51:00,81.4,61.0,29.89,NE,42,1.0,6.0,50,0.00,,---,0.00,756.00,VWS V14.01,2012-10-20 18:51:00,
2012-10-20 14:52:00,81.7,59.5,29.89,WNW,301,3.0,6.0,47,0.00,,---,0.00,738.00,VWS V14.01,2012-10-20 18:52:00,
2012-10-20 14:53:00,81.7,60.1,29.89,North,3,2.0,6.0,48,0.00,,---,0.00,738.00,VWS V14.01,2012-10-20 18:53:00,
2012-10-20 14:55:00,81.7,60.1,29.89,NNW,342,1.0,6.0,48,0.00,,---,0.00,733.00,VWS V14.01,2012-10-20 18:55:00,
2012-10-20 14:56:00,81.7,61.8,29.89,ENE,57,1.0,6.0,51,0.00,,---,0.00,751.00,VWS V14.01,2012-10-20 18:56:00,
2012-10-20 15:00:00,80.7,59.2,29.91,NE,35,1.0,9.0,48,0.00,,---,0.00,817.00,VWS V14.01,2012-10-20 19:00:00,
2012-10-20 15:01:00,81.7,59.5,29.89,WNW,297,5.0,6.0,47,0.00,,---,0.00,745.00,VWS V14.01,2012-10-20 19:01:00,
2012-10-20 15:02:00,82.0,61.0,29.88,North,4,0.0,5.0,49,0.00,,---,0.00,721.00,VWS V14.01,2012-10-20 19:02:00,
2012-10-20 15:03:00,82.1,62.2,29.88,NNW,347,0.0,5.0,51,0.00,,---,0.00,721.00,VWS V14.01,2012-10-20 19:03:00,
2012-10-20 15:06:00,81.7,60.7,29.88,NNE,21,2.0,6.0,49,0.00,,---,0.00,728.00,VWS V14.01,2012-10-20 19:06:00,
2012-10-20 15:07:00,81.9,61.5,29.88,ENE,58,1.0,5.0,50,0.00,,---,0.00,705.00,VWS V14.01,2012-10-20 19:07:00,
2012-10-20 15:08:00,81.8,61.4,29.88,NNE,13,0.0,5.0,50,0.00,,---,0.00,701.00,VWS V14.01,2012-10-20 19:08:00,
2012-10-20 15:11:00,82.0,61.5,29.88,NNE,12,2.0,5.0,50,0.00,,---,0.00,724.00,VWS V14.01,2012-10-20 19:11:00,
2012-10-20 15:13:00,81.6,60.0,29.88,NNW,347,0.0,7.0,48,0.00,,---,0.00,696.00,VWS V14.01,2012-10-20 19:13:00,
2012-10-20 15:16:00,82.1,61.6,29.88,ENE,62,0.0,5.0,50,0.00,,---,0.00,705.00,VWS V14.01,2012-10-20 19:16:00,
2012-10-20 15:17:00,81.8,61.4,29.88,North,10,1.0,7.0,50,0.00,,---,0.00,687.00,VWS V14.01,2012-10-20 19:17:00,
2012-10-20 15:19:00,81.7,61.3,29.88,NNW,341,1.0,7.0,50,0.00,,---,0.00,682.00,VWS V14.01,2012-10-20 19:19:00,
2012-10-20 15:20:00,81.6,62.8,29.88,NNW,341,1.0,7.0,53,0.00,,---,0.00,679.00,VWS V14.01,2012-10-20 19:20:00,
2012-10-20 15:21:00,81.7,60.7,29.88,North,356,5.0,7.0,49,0.00,,---,0.00,696.00,VWS V14.01,2012-10-20 19:21:00,
2012-10-20 15:22:00,81.6,61.7,29.88,North,357,3.0,7.0,51,0.00,,---,0.00,677.00,VWS V14.01,2012-10-20 19:22:00,
2012-10-20 15:26:00,81.7,61.3,29.88,NNE,24,1.0,7.0,50,0.00,,---,0.00,687.00,VWS V14.01,2012-10-20 19:26:00,
2012-10-20 15:28:00,81.6,62.3,29.88,NW,320,3.0,7.0,52,0.00,,---,0.00,663.00,VWS V14.01,2012-10-20 19:28:00,
2012-10-20 15:31:00,81.6,61.7,29.88,NNW,341,3.0,7.0,51,0.00,,---,0.00,677.00,VWS V14.01,2012-10-20 19:31:00,
2012-10-20 15:32:00,81.4,59.3,29.88,NNW,345,3.0,7.0,47,0.00,,---,0.00,656.00,VWS V14.01,2012-10-20 19:32:00,
2012-10-20 15:36:00,81.6,62.3,29.88,NNW,348,5.0,7.0,52,0.00,,---,0.00,671.00,VWS V14.01,2012-10-20 19:36:00,
2012-10-20 15:38:00,81.2,57.2,29.88,NNW,338,1.0,7.0,44,0.00,,---,0.00,612.00,VWS V14.01,2012-10-20 19:38:00,
2012-10-20 15:41:00,81.5,59.3,29.88,NNW,331,1.0,7.0,47,0.00,,---,0.00,656.00,VWS V14.01,2012-10-20 19:41:00,
2012-10-20 15:43:00,81.4,58.7,29.88,NW,324,0.0,7.0,46,0.00,,---,0.00,612.00,VWS V14.01,2012-10-20 19:43:00,
2012-10-20 15:46:00,81.3,58.6,29.88,North,355,2.0,7.0,46,0.00,,---,0.00,638.00,VWS V14.01,2012-10-20 19:46:00,
2012-10-20 15:48:00,81.3,59.2,29.88,WNW,297,2.0,7.0,47,0.00,,---,0.00,69.00,VWS V14.01,2012-10-20 19:48:00,
2012-10-20 15:49:00,81.2,57.2,29.88,SW,219,3.0,7.0,44,0.00,,---,0.00,54.00,VWS V14.01,2012-10-20 19:49:00,
2012-10-20 15:50:00,81.2,57.9,29.88,North,360,1.0,7.0,45,0.00,,---,0.00,54.00,VWS V14.01,2012-10-20 19:50:00,
2012-10-20 15:51:00,81.3,58.6,29.88,NNW,343,2.0,7.0,46,0.00,,---,0.00,612.00,VWS V14.01,2012-10-20 19:51:00,
2012-10-20 15:53:00,81.2,59.1,29.88,North,352,1.0,7.0,47,0.00,,---,0.00,49.00,VWS V14.01,2012-10-20 19:53:00,
2012-10-20 15:55:00,81.1,60.2,29.88,NNW,344,2.0,7.0,49,0.00,,---,0.00,46.00,VWS V14.01,2012-10-20 19:55:00,
2012-10-20 15:56:00,81.4,57.4,29.88,NW,322,1.0,7.0,44,0.00,,---,0.00,72.00,VWS V14.01,2012-10-20 19:56:00,
2012-10-20 15:57:00,80.9,58.2,29.88,NNW,343,2.0,7.0,46,0.00,,---,0.00,49.00,VWS V14.01,2012-10-20 19:57:00,
2012-10-20 15:58:00,80.9,58.8,29.88,NW,323,3.0,7.0,47,0.00,,---,0.00,49.00,VWS V14.01,2012-10-20 19:58:00,
2012-10-20 15:59:00,80.8,57.5,29.88,NNW,329,3.0,7.0,45,0.00,,---,0.00,51.00,VWS V14.01,2012-10-20 19:59:00,
2012-10-20 16:00:00,80.8,56.9,29.88,NNW,341,3.0,5.0,44,0.00,,---,0.00,51.00,VWS V14.01,2012-10-20 20:00:00,
2012-10-20 16:01:00,81.2,59.1,29.88,NNW,328,4.0,7.0,47,0.00,,---,0.00,49.00,VWS V14.01,2012-10-20 20:01:00,
2012-10-20 16:03:00,80.7,57.4,29.88,NNW,345,3.0,6.0,45,0.00,,---,0.00,95.00,VWS V14.01,2012-10-20 20:03:00,
2012-10-20 16:04:00,80.7,58.0,29.88,North,359,2.0,6.0,46,0.00,,---,0.00,95.00,VWS V14.01,2012-10-20 20:04:00,
2012-10-20 16:05:00,80.6,57.9,29.88,NNW,340,0.0,6.0,46,0.00,,---,0.00,93.00,VWS V14.01,2012-10-20 20:05:00,
2012-10-20 16:06:00,80.9,58.2,29.88,NNW,345,1.0,7.0,46,0.00,,---,0.00,49.00,VWS V14.01,2012-10-20 20:06:00,
2012-10-20 16:11:00,80.7,58.0,29.88,North,355,4.0,6.0,46,0.00,,---,0.00,95.00,VWS V14.01,2012-10-20 20:11:00,
2012-10-20 16:14:00,80.2,59.3,29.88,NNW,340,2.0,7.0,49,0.00,,---,0.00,42.00,VWS V14.01,2012-10-20 20:14:00,
2012-10-20 16:16:00,80.5,58.4,29.88,NNW,341,0.0,6.0,47,0.00,,---,0.00,62.00,VWS V14.01,2012-10-20 20:16:00,
2012-10-20 16:17:00,80.0,58.6,29.88,ENE,61,1.0,11.0,48,0.00,,---,0.00,42.00,VWS V14.01,2012-10-20 20:17:00,
2012-10-20 16:18:00,80.0,59.1,29.88,NNW,335,2.0,11.0,49,0.00,,---,0.00,40.00,VWS V14.01,2012-10-20 20:18:00,
2012-10-20 16:21:00,80.2,57.0,29.88,NW,322,2.0,7.0,45,0.00,,---,0.00,93.00,VWS V14.01,2012-10-20 20:21:00,
2012-10-20 16:26:00,80.0,58.6,29.88,NNE,24,1.0,11.0,48,0.00,,---,0.00,42.00,VWS V14.01,2012-10-20 20:26:00,
2012-10-20 16:29:00,79.6,59.3,29.89,NNW,338,4.0,11.0,50,0.00,,---,0.00,49.00,VWS V14.01,2012-10-20 20:29:00,
2012-10-20 16:31:00,79.7,57.7,29.88,North,3,1.0,11.0,47,0.00,,---,0.00,44.00,VWS V14.01,2012-10-20 20:31:00,
2012-10-20 16:32:00,79.5,59.8,29.89,NNW,333,1.0,11.0,51,0.00,,---,0.00,39.00,VWS V14.01,2012-10-20 20:32:00,
2012-10-20 16:35:00,79.2,61.1,29.89,North,358,1.0,11.0,54,0.00,,---,0.00,47.00,VWS V14.01,2012-10-20 20:35:00,
2012-10-20 16:36:00,79.7,60.0,29.89,NNW,329,0.0,11.0,51,0.00,,---,0.00,49.00,VWS V14.01,2012-10-20 20:36:00,
2012-10-20 16:37:00,78.9,61.4,29.89,North,359,1.0,11.0,55,0.00,,---,0.00,102.00,VWS V14.01,2012-10-20 20:37:00,
2012-10-20 16:39:00,78.8,60.2,29.89,NW,313,0.0,11.0,53,0.00,,---,0.00,385.00,VWS V14.01,2012-10-20 20:39:00,
2012-10-20 16:41:00,79.5,59.8,29.89,NNW,333,1.0,11.0,51,0.00,,---,0.00,39.00,VWS V14.01,2012-10-20 20:41:00,
2012-10-20 16:42:00,78.6,60.1,29.89,North,360,1.0,11.0,53,0.00,,---,0.00,346.00,VWS V14.01,2012-10-20 20:42:00,
2012-10-20 16:45:00,78.4,59.3,29.89,NW,313,1.0,11.0,52,0.00,,---,0.00,91.00,VWS V14.01,2012-10-20 20:45:00,
2012-10-20 16:46:00,78.9,61.4,29.89,North,359,1.0,11.0,55,0.00,,---,0.00,102.00,VWS V14.01,2012-10-20 20:46:00,
2012-10-20 16:48:00,78.4,58.2,29.89,NW,326,2.0,11.0,50,0.00,,---,0.00,76.00,VWS V14.01,2012-10-20 20:48:00,
2012-10-20 16:51:00,78.6,60.1,29.89,NW,312,3.0,11.0,53,0.00,,---,0.00,346.00,VWS V14.01,2012-10-20 20:51:00,
2012-10-20 16:52:00,78.5,58.3,29.89,NW,312,2.0,11.0,50,0.00,,---,0.00,72.00,VWS V14.01,2012-10-20 20:52:00,
2012-10-20 16:55:00,78.5,57.2,29.89,North,1,2.0,11.0,48,0.00,,---,0.00,54.00,VWS V14.01,2012-10-20 20:55:00,
2012-10-20 16:56:00,78.3,58.2,29.89,NW,321,1.0,11.0,50,0.00,,---,0.00,67.00,VWS V14.01,2012-10-20 20:56:00,
2012-10-20 16:58:00,78.4,57.7,29.89,NNW,348,3.0,11.0,49,0.00,,---,0.00,120.00,VWS V14.01,2012-10-20 20:58:00,
2012-10-20 17:00:00,78.4,57.7,29.89,NNW,340,1.0,3.0,49,0.00,,---,0.00,62.00,VWS V14.01,2012-10-20 21:00:00,
2012-10-20 17:01:00,78.5,58.3,29.89,NW,304,6.0,11.0,50,0.00,,---,0.00,72.00,VWS V14.01,2012-10-20 21:01:00,
2012-10-20 17:04:00,78.2,58.6,29.89,NNW,329,2.0,6.0,51,0.00,,---,0.00,46.00,VWS V14.01,2012-10-20 21:04:00,
2012-10-20 17:06:00,78.1,58.5,29.89,NNW,341,1.0,6.0,51,0.00,,---,0.00,33.00,VWS V14.01,2012-10-20 21:06:00,
2012-10-20 17:07:00,78.4,57.7,29.89,NNW,327,1.0,11.0,49,0.00,,---,0.00,90.00,VWS V14.01,2012-10-20 21:07:00,
2012-10-20 17:08:00,77.9,57.8,29.89,NNW,343,3.0,6.0,50,0.00,,---,0.00,33.00,VWS V14.01,2012-10-20 21:08:00,
2012-10-20 17:10:00,77.9,56.7,29.89,NW,314,2.0,9.0,48,0.00,,---,0.00,33.00,VWS V14.01,2012-10-20 21:10:00,
2012-10-20 17:11:00,77.8,57.7,29.89,West,281,3.0,9.0,50,0.00,,---,0.00,32.00,VWS V14.01,2012-10-20 21:11:00,
2012-10-20 17:12:00,78.3,57.6,29.89,WNW,288,6.0,6.0,49,0.00,,---,0.00,42.00,VWS V14.01,2012-10-20 21:12:00,
2012-10-20 17:15:00,77.8,56.6,29.89,North,1,2.0,9.0,48,0.00,,---,0.00,32.00,VWS V14.01,2012-10-20 21:15:00,
2012-10-20 17:17:00,78.0,58.4,29.89,NNW,328,5.0,6.0,51,0.00,,---,0.00,33.00,VWS V14.01,2012-10-20 21:17:00,
2012-10-20 17:19:00,77.7,57.6,29.89,NW,314,5.0,9.0,50,0.00,,---,0.00,33.00,VWS V14.01,2012-10-20 21:19:00,
2012-10-20 17:20:00,77.7,57.0,29.89,NW,320,8.0,9.0,49,0.00,,---,0.00,39.00,VWS V14.01,2012-10-20 21:20:00,
2012-10-20 17:22:00,77.8,56.6,29.89,NNW,328,2.0,9.0,48,0.00,,---,0.00,32.00,VWS V14.01,2012-10-20 21:22:00,
2012-10-20 17:23:00,77.6,57.5,29.89,North,353,0.0,9.0,50,0.00,,---,0.00,30.00,VWS V14.01,2012-10-20 21:23:00,
2012-10-20 17:24:00,77.6,58.1,29.89,ESE,112,1.0,9.0,51,0.00,,---,0.00,30.00,VWS V14.01,2012-10-20 21:24:00,
2012-10-20 17:26:00,77.5,57.4,29.89,NW,320,2.0,9.0,50,0.00,,---,0.00,30.00,VWS V14.01,2012-10-20 21:26:00,
2012-10-20 17:27:00,77.7,57.6,29.89,NNW,344,2.0,9.0,50,0.00,,---,0.00,33.00,VWS V14.01,2012-10-20 21:27:00,
2012-10-20 17:28:00,77.3,56.7,29.89,NNW,347,3.0,9.0,49,0.00,,---,0.00,28.00,VWS V14.01,2012-10-20 21:28:00,
2012-10-20 17:29:00,77.2,57.7,29.89,NNW,329,4.0,9.0,51,0.00,,---,0.00,28.00,VWS V14.01,2012-10-20 21:29:00,
2012-10-20 17:32:00,77.6,55.8,29.89,ENE,67,2.0,9.0,47,0.00,,---,0.00,30.00,VWS V14.01,2012-10-20 21:32:00,
2012-10-20 17:33:00,77.1,57.0,29.89,NNW,341,3.0,9.0,50,0.00,,---,0.00,28.00,VWS V14.01,2012-10-20 21:33:00,
2012-10-20 17:34:00,77.0,57.0,29.89,North,349,3.0,9.0,50,0.00,,---,0.00,26.00,VWS V14.01,2012-10-20 21:34:00,
2012-10-20 17:37:00,77.3,57.2,29.89,NW,324,3.0,9.0,50,0.00,,---,0.00,28.00,VWS V14.01,2012-10-20 21:37:00,
2012-10-20 17:38:00,76.9,56.9,29.89,NW,317,2.0,9.0,50,0.00,,---,0.00,26.00,VWS V14.01,2012-10-20 21:38:00,
2012-10-20 17:41:00,76.7,57.2,29.89,NNW,328,2.0,9.0,51,0.00,,---,0.00,25.00,VWS V14.01,2012-10-20 21:41:00,
2012-10-20 17:42:00,77.1,57.0,29.89,NNW,338,1.0,9.0,50,0.00,,---,0.00,28.00,VWS V14.01,2012-10-20 21:42:00,
2012-10-20 17:43:00,76.7,57.2,29.89,NNW,333,2.0,9.0,51,0.00,,---,0.00,25.00,VWS V14.01,2012-10-20 21:43:00,
2012-10-20 17:47:00,76.9,56.9,29.89,NNW,334,2.0,9.0,50,0.00,,---,0.00,26.00,VWS V14.01,2012-10-20 21:47:00,
2012-10-20 17:51:00,76.5,54.8,29.89,NNW,333,6.0,9.0,47,0.00,,---,0.00,23.00,VWS V14.01,2012-10-20 21:51:00,
2012-10-20 17:52:00,76.7,56.7,29.89,NNW,341,4.0,9.0,50,0.00,,---,0.00,25.00,VWS V14.01,2012-10-20 21:52:00,
2012-10-20 17:55:00,76.4,55.8,29.89,NNW,336,5.0,9.0,49,0.00,,---,0.00,21.00,VWS V14.01,2012-10-20 21:55:00,
2012-10-20 17:57:00,76.6,56.6,29.89,WNW,302,7.0,9.0,50,0.00,,---,0.00,23.00,VWS V14.01,2012-10-20 21:57:00,
2012-10-20 17:58:00,76.2,56.2,29.89,NNW,340,2.0,9.0,50,0.00,,---,0.00,19.00,VWS V14.01,2012-10-20 21:58:00,
2012-10-20 18:00:00,76.1,55.6,29.89,NNW,339,4.0,6.0,49,0.00,,---,0.00,19.00,VWS V14.01,2012-10-20 22:00:00,
2012-10-20 18:01:00,76.0,54.9,29.89,North,355,3.0,6.0,48,0.00,,---,0.00,19.00,VWS V14.01,2012-10-20 22:01:00,
2012-10-20 18:02:00,76.5,54.8,29.89,North,349,4.0,9.0,47,0.00,,---,0.00,21.00,VWS V14.01,2012-10-20 22:02:00,
2012-10-20 18:03:00,76.0,54.9,29.90,NNW,347,1.0,6.0,48,0.00,,---,0.00,19.00,VWS V14.01,2012-10-20 22:03:00,
2012-10-20 18:04:00,75.9,55.4,29.90,NNW,334,3.0,7.0,49,0.00,,---,0.00,19.00,VWS V14.01,2012-10-20 22:04:00,
2012-10-20 18:05:00,75.9,55.4,29.90,North,359,2.0,7.0,49,0.00,,---,0.00,19.00,VWS V14.01,2012-10-20 22:05:00,
2012-10-20 18:06:00,75.8,54.7,29.90,North,8,0.0,7.0,48,0.00,,---,0.00,18.00,VWS V14.01,2012-10-20 22:06:00,
2012-10-20 18:07:00,76.3,56.3,29.89,NW,322,2.0,9.0,50,0.00,,---,0.00,21.00,VWS V14.01,2012-10-20 22:07:00,
2012-10-20 18:09:00,75.7,56.8,29.90,NW,321,1.0,7.0,52,0.00,,---,0.00,18.00,VWS V14.01,2012-10-20 22:09:00,
2012-10-20 18:12:00,76.0,54.9,29.90,NNW,340,3.0,6.0,48,0.00,,---,0.00,19.00,VWS V14.01,2012-10-20 22:12:00,
2012-10-20 18:14:00,75.4,55.5,29.90,NNW,329,2.0,7.0,50,0.00,,---,0.00,16.00,VWS V14.01,2012-10-20 22:14:00,
2012-10-20 18:15:00,75.3,55.4,29.90,North,351,2.0,7.0,50,0.00,,---,0.00,16.00,VWS V14.01,2012-10-20 22:15:00,
2012-10-20 18:16:00,75.3,55.4,29.90,NNW,339,5.0,7.0,50,0.00,,---,0.00,16.00,VWS V14.01,2012-10-20 22:16:00,
2012-10-20 18:17:00,75.8,56.4,29.90,North,358,1.0,7.0,51,0.00,,---,0.00,18.00,VWS V14.01,2012-10-20 22:17:00,
2012-10-20 18:20:00,75.1,55.2,29.90,NNW,345,4.0,7.0,50,0.00,,---,0.00,14.00,VWS V14.01,2012-10-20 22:20:00,
2012-10-20 18:21:00,75.1,54.7,29.90,NNW,340,3.0,7.0,49,0.00,,---,0.00,14.00,VWS V14.01,2012-10-20 22:21:00,
2012-10-20 18:22:00,75.5,56.1,29.90,NW,324,0.0,7.0,51,0.00,,---,0.00,18.00,VWS V14.01,2012-10-20 22:22:00,
2012-10-20 18:23:00,75.1,54.7,29.90,North,3,1.0,7.0,49,0.00,,---,0.00,14.00,VWS V14.01,2012-10-20 22:23:00,
2012-10-20 18:27:00,75.2,54.8,29.90,NNW,334,6.0,7.0,49,0.00,,---,0.00,16.00,VWS V14.01,2012-10-20 22:27:00,
2012-10-20 18:30:00,74.8,54.4,29.90,NNW,345,4.0,7.0,49,0.00,,---,0.00,11.00,VWS V14.01,2012-10-20 22:30:00,
2012-10-20 18:32:00,75.1,54.7,29.90,NNW,332,4.0,7.0,49,0.00,,---,0.00,14.00,VWS V14.01,2012-10-20 22:32:00,
2012-10-20 18:33:00,74.6,55.3,29.90,North,351,4.0,7.0,51,0.00,,---,0.00,9.00,VWS V14.01,2012-10-20 22:33:00,
2012-10-20 18:34:00,74.6,54.2,29.90,NNW,339,2.0,7.0,49,0.00,,---,0.00,9.00,VWS V14.01,2012-10-20 22:34:00,
2012-10-20 18:36:00,74.4,55.1,29.90,NW,322,1.0,7.0,51,0.00,,---,0.00,7.00,VWS V14.01,2012-10-20 22:36:00,
2012-10-20 18:37:00,74.9,54.5,29.90,NW,324,2.0,7.0,49,0.00,,---,0.00,12.00,VWS V14.01,2012-10-20 22:37:00,
2012-10-20 18:38:00,74.2,53.8,29.91,NNW,329,2.0,7.0,49,0.00,,---,0.00,7.00,VWS V14.01,2012-10-20 22:38:00,
2012-10-20 18:39:00,74.2,53.3,29.90,NW,318,2.0,7.0,48,0.00,,---,0.00,7.00,VWS V14.01,2012-10-20 22:39:00,
2012-10-20 18:40:00,74.1,53.2,29.90,NNW,328,2.0,7.0,48,0.00,,---,0.00,5.00,VWS V14.01,2012-10-20 22:40:00,
2012-10-20 18:41:00,74.0,54.2,29.91,NNW,341,2.0,7.0,50,0.00,,---,0.00,5.00,VWS V14.01,2012-10-20 22:41:00,
2012-10-20 18:42:00,74.6,54.2,29.90,NNW,342,1.0,7.0,49,0.00,,---,0.00,9.00,VWS V14.01,2012-10-20 22:42:00,
2012-10-20 18:44:00,73.8,53.5,29.91,North,356,2.0,7.0,49,0.00,,---,0.00,5.00,VWS V14.01,2012-10-20 22:44:00,
2012-10-20 18:47:00,74.3,54.5,29.91,NNW,338,5.0,7.0,50,0.00,,---,0.00,7.00,VWS V14.01,2012-10-20 22:47:00,
2012-10-20 18:49:00,73.5,54.3,29.91,North,4,4.0,7.0,51,0.00,,---,0.00,0.00,VWS V14.01,2012-10-20 22:49:00,
2012-10-20 18:50:00,73.5,53.7,29.91,NW,322,4.0,7.0,50,0.00,,---,0.00,0.00,VWS V14.01,2012-10-20 22:50:00,
2012-10-20 18:52:00,73.9,54.1,29.91,NW,321,3.0,7.0,50,0.00,,---,0.00,5.00,VWS V14.01,2012-10-20 22:52:00,
2012-10-20 18:53:00,73.3,54.6,29.91,North,356,2.0,7.0,52,0.00,,---,0.00,0.00,VWS V14.01,2012-10-20 22:53:00,
2012-10-20 18:56:00,73.1,53.9,29.91,NNW,335,1.0,7.0,51,0.00,,---,0.00,0.00,VWS V14.01,2012-10-20 22:56:00,
2012-10-20 18:57:00,73.6,54.4,29.91,North,360,3.0,7.0,51,0.00,,---,0.00,0.00,VWS V14.01,2012-10-20 22:57:00,
2012-10-20 19:00:00,73.0,55.4,29.91,North,351,3.0,3.0,54,0.00,,---,0.00,0.00,VWS V14.01,2012-10-20 23:00:00,
2012-10-20 19:02:00,73.4,54.7,29.91,NNW,336,2.0,7.0,52,0.00,,---,0.00,0.00,VWS V14.01,2012-10-20 23:02:00,
2012-10-20 19:03:00,72.7,54.6,29.91,NNW,343,3.0,5.0,53,0.00,,---,0.00,0.00,VWS V14.01,2012-10-20 23:03:00,
2012-10-20 19:04:00,72.7,54.6,29.91,North,6,3.0,5.0,53,0.00,,---,0.00,0.00,VWS V14.01,2012-10-20 23:04:00,
2012-10-20 19:05:00,72.6,54.5,29.91,NNW,336,4.0,6.0,53,0.00,,---,0.00,0.00,VWS V14.01,2012-10-20 23:05:00,
2012-10-20 19:07:00,73.1,55.0,29.91,NNW,337,3.0,7.0,53,0.00,,---,0.00,0.00,VWS V14.01,2012-10-20 23:07:00,
2012-10-20 19:08:00,72.4,54.3,29.91,North,360,1.0,6.0,53,0.00,,---,0.00,0.00,VWS V14.01,2012-10-20 23:08:00,
2012-10-20 19:11:00,72.3,54.2,29.92,NNW,336,2.0,8.0,53,0.00,,---,0.00,0.00,VWS V14.01,2012-10-20 23:11:00,
2012-10-20 19:12:00,72.8,54.7,29.91,NW,317,3.0,5.0,53,0.00,,---,0.00,0.00,VWS V14.01,2012-10-20 23:12:00,
2012-10-20 19:14:00,72.2,54.7,29.92,NNW,338,2.0,8.0,54,0.00,,---,0.00,0.00,VWS V14.01,2012-10-20 23:14:00,
2012-10-20 19:17:00,72.4,54.8,29.91,NNW,331,2.0,6.0,54,0.00,,---,0.00,0.00,VWS V14.01,2012-10-20 23:17:00,
2012-10-20 19:18:00,72.0,54.0,29.92,NNW,331,2.0,8.0,53,0.00,,---,0.00,0.00,VWS V14.01,2012-10-20 23:18:00,
2012-10-20 19:20:00,71.9,53.9,29.92,North,353,1.0,8.0,53,0.00,,---,0.00,0.00,VWS V14.01,2012-10-20 23:20:00,
2012-10-20 19:22:00,72.3,53.7,29.92,North,352,2.0,8.0,52,0.00,,---,0.00,0.00,VWS V14.01,2012-10-20 23:22:00,
2012-10-20 19:23:00,71.7,53.2,29.92,NNW,342,0.0,8.0,52,0.00,,---,0.00,0.00,VWS V14.01,2012-10-20 23:23:00,
2012-10-20 19:25:00,71.6,53.1,29.92,NNW,342,0.0,8.0,52,0.00,,---,0.00,0.00,VWS V14.01,2012-10-20 23:25:00,
2012-10-20 19:27:00,72.0,54.0,29.92,NNW,333,4.0,8.0,53,0.00,,---,0.00,0.00,VWS V14.01,2012-10-20 23:27:00,
2012-10-20 19:28:00,71.4,53.4,29.92,NNW,341,1.0,8.0,53,0.00,,---,0.00,0.00,VWS V14.01,2012-10-20 23:28:00,
2012-10-20 19:32:00,71.7,53.2,29.92,NNW,342,0.0,8.0,52,0.00,,---,0.00,0.00,VWS V14.01,2012-10-20 23:32:00,
2012-10-20 19:34:00,70.8,53.3,29.92,NW,312,2.0,8.0,54,0.00,,---,0.00,0.00,VWS V14.01,2012-10-20 23:34:00,
2012-10-20 19:37:00,71.4,53.4,29.92,NNW,341,0.0,8.0,53,0.00,,---,0.00,0.00,VWS V14.01,2012-10-20 23:37:00,
2012-10-20 19:41:00,70.5,53.6,29.92,North,7,1.0,8.0,55,0.00,,---,0.00,0.00,VWS V14.01,2012-10-20 23:41:00,
2012-10-20 19:42:00,70.9,53.4,29.91,NNW,331,1.0,8.0,54,0.00,,---,0.00,0.00,VWS V14.01,2012-10-20 23:42:00,
2012-10-20 19:43:00,70.3,53.9,29.92,North,7,0.0,8.0,56,0.00,,---,0.00,0.00,VWS V14.01,2012-10-20 23:43:00,
2012-10-20 19:47:00,70.7,53.8,29.92,NNW,345,1.0,8.0,55,0.00,,---,0.00,0.00,VWS V14.01,2012-10-20 23:47:00,
2012-10-20 19:49:00,69.0,54.1,29.92,NW,322,2.0,8.0,59,0.00,,---,0.00,0.00,VWS V14.01,2012-10-20 23:49:00,
2012-10-20 19:50:00,68.8,54.4,29.92,NW,326,2.0,8.0,60,0.00,,---,0.00,0.00,VWS V14.01,2012-10-20 23:50:00,
2012-10-20 19:52:00,70.3,53.9,29.92,North,7,0.0,8.0,56,0.00,,---,0.00,0.00,VWS V14.01,2012-10-20 23:52:00,
2012-10-20 19:53:00,68.2,54.7,29.92,NW,326,0.0,8.0,62,0.00,,---,0.00,0.00,VWS V14.01,2012-10-20 23:53:00,
2012-10-20 19:56:00,67.8,54.3,29.92,NW,326,0.0,8.0,62,0.00,,---,0.00,0.00,VWS V14.01,2012-10-20 23:56:00,
2012-10-20 19:57:00,69.3,53.9,29.92,North,7,0.0,8.0,58,0.00,,---,0.00,0.00,VWS V14.01,2012-10-20 23:57:00,
2012-10-20 19:59:00,67.5,54.9,29.92,NW,326,1.0,8.0,64,0.00,,---,0.00,0.00,VWS V14.01,2012-10-20 23:59:00,
2012-10-20 20:00:00,67.4,54.8,29.92,NW,326,1.0,1.0,64,0.00,,---,0.00,0.00,VWS V14.01,2012-10-21 00:00:00,
2012-10-20 20:02:00,68.3,54.3,29.92,NW,326,0.0,8.0,61,0.00,,---,0.00,0.00,VWS V14.01,2012-10-21 00:02:00,
2012-10-20 20:03:00,67.0,54.4,29.92,NW,326,0.0,1.0,64,0.00,,---,0.00,0.00,VWS V14.01,2012-10-21 00:03:00,
2012-10-20 20:07:00,67.6,54.6,29.92,NW,326,0.0,8.0,63,0.00,,---,0.00,0.00,VWS V14.01,2012-10-21 00:07:00,
2012-10-20 20:09:00,66.8,54.2,29.93,NW,326,0.0,1.0,64,0.00,,---,0.00,0.00,VWS V14.01,2012-10-21 00:09:00,
2012-10-20 20:12:00,67.1,54.5,29.92,NW,326,0.0,1.0,64,0.00,,---,0.00,0.00,VWS V14.01,2012-10-21 00:12:00,
2012-10-20 20:16:00,66.9,54.3,29.93,NW,326,0.0,1.0,64,0.00,,---,0.00,0.00,VWS V14.01,2012-10-21 00:16:00,
2012-10-20 20:17:00,66.8,54.7,29.92,NW,326,0.0,1.0,65,0.00,,---,0.00,0.00,VWS V14.01,2012-10-21 00:17:00,
2012-10-20 20:18:00,66.9,54.8,29.93,NW,326,0.0,1.0,65,0.00,,---,0.00,0.00,VWS V14.01,2012-10-21 00:18:00,
2012-10-20 20:19:00,66.8,54.7,29.93,NW,326,0.0,1.0,65,0.00,,---,0.00,0.00,VWS V14.01,2012-10-21 00:19:00,
2012-10-20 20:22:00,66.8,54.2,29.93,NW,326,0.0,1.0,64,0.00,,---,0.00,0.00,VWS V14.01,2012-10-21 00:22:00,
2012-10-20 20:23:00,66.5,54.4,29.93,NW,326,0.0,1.0,65,0.00,,---,0.00,0.00,VWS V14.01,2012-10-21 00:23:00,
2012-10-20 20:24:00,66.5,54.4,29.93,NW,326,0.0,1.0,65,0.00,,---,0.00,0.00,VWS V14.01,2012-10-21 00:24:00,
2012-10-20 20:25:00,66.5,54.4,29.93,NW,326,0.0,1.0,65,0.00,,---,0.00,0.00,VWS V14.01,2012-10-21 00:25:00,
2012-10-20 20:27:00,66.9,54.8,29.93,NW,326,0.0,1.0,65,0.00,,---,0.00,0.00,VWS V14.01,2012-10-21 00:27:00,
2012-10-20 20:29:00,66.5,54.4,29.93,NW,326,0.0,1.0,65,0.00,,---,0.00,0.00,VWS V14.01,2012-10-21 00:29:00,
2012-10-20 20:32:00,66.5,54.4,29.93,NW,326,0.0,1.0,65,0.00,,---,0.00,0.00,VWS V14.01,2012-10-21 00:32:00,
2012-10-20 20:34:00,66.6,54.5,29.94,NW,326,0.0,1.0,65,0.00,,---,0.00,0.00,VWS V14.01,2012-10-21 00:34:00,
2012-10-20 20:37:00,66.4,54.3,29.93,NW,326,0.0,1.0,65,0.00,,---,0.00,0.00,VWS V14.01,2012-10-21 00:37:00,
2012-10-20 20:38:00,66.4,54.3,29.94,NW,326,0.0,1.0,65,0.00,,---,0.00,0.00,VWS V14.01,2012-10-21 00:38:00,
2012-10-20 20:42:00,66.6,54.5,29.94,NW,326,0.0,1.0,65,0.00,,---,0.00,0.00,VWS V14.01,2012-10-21 00:42:00,
2012-10-20 20:46:00,66.1,54.0,29.94,NW,326,0.0,1.0,65,0.00,,---,0.00,0.00,VWS V14.01,2012-10-21 00:46:00,
2012-10-20 20:47:00,66.5,54.4,29.94,NW,326,0.0,1.0,65,0.00,,---,0.00,0.00,VWS V14.01,2012-10-21 00:47:00,
2012-10-20 20:48:00,66.0,54.3,29.94,NW,326,0.0,1.0,66,0.00,,---,0.00,0.00,VWS V14.01,2012-10-21 00:48:00,
2012-10-20 20:49:00,66.0,54.3,29.94,NW,326,0.0,1.0,66,0.00,,---,0.00,0.00,VWS V14.01,2012-10-21 00:49:00,
2012-10-20 20:51:00,66.0,54.3,29.94,NW,326,0.0,1.0,66,0.00,,---,0.00,0.00,VWS V14.01,2012-10-21 00:51:00,
2012-10-20 20:52:00,66.2,54.5,29.94,NW,326,0.0,1.0,66,0.00,,---,0.00,0.00,VWS V14.01,2012-10-21 00:52:00,
2012-10-20 20:54:00,66.0,54.7,29.94,NW,326,0.0,1.0,67,0.00,,---,0.00,0.00,VWS V14.01,2012-10-21 00:54:00,
2012-10-20 20:56:00,66.0,54.7,29.94,NW,326,0.0,1.0,67,0.00,,---,0.00,0.00,VWS V14.01,2012-10-21 00:56:00,
2012-10-20 20:57:00,65.9,54.7,29.94,NW,326,0.0,1.0,67,0.00,,---,0.00,0.00,VWS V14.01,2012-10-21 00:57:00,
2012-10-20 20:58:00,66.0,54.3,29.94,NW,326,0.0,1.0,66,0.00,,---,0.00,0.00,VWS V14.01,2012-10-21 00:58:00,
2012-10-20 21:00:00,67.5,54.9,29.92,NW,326,1.0,8.0,64,0.00,,---,0.00,0.00,VWS V14.01,2012-10-21 01:00:00,
2012-10-20 21:01:00,65.8,54.5,29.94,NW,326,0.0,0.0,67,0.00,,---,0.00,0.00,VWS V14.01,2012-10-21 01:01:00,
2012-10-20 21:03:00,66.0,54.3,29.94,NW,326,0.0,1.0,66,0.00,,---,0.00,0.00,VWS V14.01,2012-10-21 01:03:00,
2012-10-20 21:04:00,65.7,54.9,29.94,NW,326,0.0,0.0,68,0.00,,---,0.00,0.00,VWS V14.01,2012-10-21 01:04:00,
2012-10-20 21:08:00,65.9,54.7,29.94,NW,326,0.0,1.0,67,0.00,,---,0.00,0.00,VWS V14.01,2012-10-21 01:08:00,
2012-10-20 21:12:00,65.1,55.1,29.95,NW,326,0.0,0.0,70,0.00,,---,0.00,0.00,VWS V14.01,2012-10-21 01:12:00,
2012-10-20 21:13:00,65.7,54.5,29.94,NW,326,0.0,0.0,67,0.00,,---,0.00,0.00,VWS V14.01,2012-10-21 01:13:00,
2012-10-20 21:14:00,65.0,55.4,29.95,NW,326,0.0,0.0,71,0.00,,---,0.00,0.00,VWS V14.01,2012-10-21 01:14:00,
2012-10-20 21:17:00,64.8,54.8,29.94,NW,326,0.0,0.0,70,0.00,,---,0.00,0.00,VWS V14.01,2012-10-21 01:17:00,
2012-10-20 21:18:00,65.4,55.4,29.95,NW,326,0.0,0.0,70,0.00,,---,0.00,0.00,VWS V14.01,2012-10-21 01:18:00,
2012-10-20 21:19:00,64.6,55.0,29.94,NW,326,0.0,0.0,71,0.00,,---,0.00,0.00,VWS V14.01,2012-10-21 01:19:00,
2012-10-20 21:22:00,64.6,55.4,29.95,NW,326,0.0,0.0,72,0.00,,---,0.00,0.00,VWS V14.01,2012-10-21 01:22:00,
2012-10-20 21:23:00,65.1,55.5,29.95,NW,326,0.0,0.0,71,0.00,,---,0.00,0.00,VWS V14.01,2012-10-21 01:23:00,
2012-10-20 21:24:00,64.6,55.4,29.95,NW,326,0.0,0.0,72,0.00,,---,0.00,0.00,VWS V14.01,2012-10-21 01:24:00,
2012-10-20 21:25:00,64.6,55.4,29.95,NW,326,0.0,0.0,72,0.00,,---,0.00,0.00,VWS V14.01,2012-10-21 01:25:00,
2012-10-20 21:26:00,64.6,55.8,29.95,NW,326,0.0,0.0,73,0.00,,---,0.00,0.00,VWS V14.01,2012-10-21 01:26:00,
2012-10-20 21:28:00,64.7,55.1,29.94,NW,326,0.0,0.0,71,0.00,,---,0.00,0.00,VWS V14.01,2012-10-21 01:28:00,
2012-10-20 21:29:00,64.6,56.1,29.95,NW,326,0.0,0.0,74,0.00,,---,0.00,0.00,VWS V14.01,2012-10-21 01:29:00,
2012-10-20 21:30:00,64.6,56.5,29.95,NW,326,0.0,0.0,75,0.00,,---,0.00,0.00,VWS V14.01,2012-10-21 01:30:00,
2012-10-20 21:31:00,64.7,56.6,29.95,NW,326,0.0,0.0,75,0.00,,---,0.00,0.00,VWS V14.01,2012-10-21 01:31:00,
2012-10-20 21:33:00,64.6,55.4,29.95,NW,326,0.0,0.0,72,0.00,,---,0.00,0.00,VWS V14.01,2012-10-21 01:33:00,
2012-10-20 21:38:00,64.6,56.1,29.95,NW,326,0.0,0.0,74,0.00,,---,0.00,0.00,VWS V14.01,2012-10-21 01:38:00,
2012-10-20 21:40:00,64.6,56.5,29.95,NW,326,0.0,0.0,75,0.00,,---,0.00,0.00,VWS V14.01,2012-10-21 01:40:00,
2012-10-20 21:42:00,64.6,56.1,29.96,NW,326,0.0,0.0,74,0.00,,---,0.00,0.00,VWS V14.01,2012-10-21 01:42:00,
2012-10-20 21:43:00,64.7,56.6,29.95,NW,326,0.0,0.0,75,0.00,,---,0.00,0.00,VWS V14.01,2012-10-21 01:43:00,
2012-10-20 21:44:00,64.7,55.9,29.96,NW,326,0.0,0.0,73,0.00,,---,0.00,0.00,VWS V14.01,2012-10-21 01:44:00,
2012-10-20 21:47:00,64.6,55.4,29.96,NW,326,0.0,0.0,72,0.00,,---,0.00,0.00,VWS V14.01,2012-10-21 01:47:00,
2012-10-20 21:48:00,64.6,56.5,29.95,NW,326,0.0,0.0,75,0.00,,---,0.00,0.00,VWS V14.01,2012-10-21 01:48:00,
2012-10-20 21:49:00,64.5,55.3,29.96,NW,326,0.0,0.0,72,0.00,,---,0.00,0.00,VWS V14.01,2012-10-21 01:49:00,
2012-10-20 21:53:00,64.6,55.8,29.96,NW,326,0.0,0.0,73,0.00,,---,0.00,0.00,VWS V14.01,2012-10-21 01:53:00,
2012-10-20 21:54:00,64.4,55.2,29.96,NW,326,0.0,0.0,72,0.00,,---,0.00,0.00,VWS V14.01,2012-10-21 01:54:00,
2012-10-20 21:55:00,64.3,55.1,29.96,NW,326,0.0,0.0,72,0.00,,---,0.00,0.00,VWS V14.01,2012-10-21 01:55:00,
2012-10-20 21:58:00,64.5,55.3,29.96,NW,326,0.0,0.0,72,0.00,,---,0.00,0.00,VWS V14.01,2012-10-21 01:58:00,
2012-10-20 21:59:00,64.0,55.6,29.96,NW,326,0.0,0.0,74,0.00,,---,0.00,0.00,VWS V14.01,2012-10-21 01:59:00,
2012-10-20 22:00:00,65.8,54.5,29.94,NW,326,0.0,1.0,67,0.00,,---,0.00,0.00,VWS V14.01,2012-10-21 02:00:00,
2012-10-20 22:01:00,64.0,55.9,29.97,NW,326,0.0,0.0,75,0.00,,---,0.00,0.00,VWS V14.01,2012-10-21 02:01:00,
2012-10-20 22:02:00,64.0,55.9,29.97,NW,326,0.0,0.0,75,0.00,,---,0.00,0.00,VWS V14.01,2012-10-21 02:02:00,
2012-10-20 22:03:00,64.4,55.2,29.96,NW,326,0.0,0.0,72,0.00,,---,0.00,0.00,VWS V14.01,2012-10-21 02:03:00,
2012-10-20 22:06:00,64.0,55.9,29.97,NW,326,0.0,0.0,75,0.00,,---,0.00,0.00,VWS V14.01,2012-10-21 02:06:00,
2012-10-20 22:08:00,64.0,55.2,29.96,NW,326,0.0,0.0,73,0.00,,---,0.00,0.00,VWS V14.01,2012-10-21 02:08:00,
2012-10-20 22:09:00,64.0,55.9,29.97,NW,326,0.0,0.0,75,0.00,,---,0.00,0.00,VWS V14.01,2012-10-21 02:09:00,
2012-10-20 22:10:00,63.9,55.8,29.97,NW,326,0.0,0.0,75,0.00,,---,0.00,0.00,VWS V14.01,2012-10-21 02:10:00,
2012-10-20 22:12:00,63.8,56.1,29.97,NW,326,0.0,0.0,76,0.00,,---,0.00,0.00,VWS V14.01,2012-10-21 02:12:00,
2012-10-20 22:13:00,64.0,55.9,29.97,NW,326,0.0,0.0,75,0.00,,---,0.00,0.00,VWS V14.01,2012-10-21 02:13:00,
2012-10-20 22:14:00,63.7,56.0,29.97,NW,326,0.0,0.0,76,0.00,,---,0.00,0.00,VWS V14.01,2012-10-21 02:14:00,
2012-10-20 22:15:00,63.7,56.4,29.97,NW,326,0.0,0.0,77,0.00,,---,0.00,0.00,VWS V14.01,2012-10-21 02:15:00,
2012-10-20 22:18:00,64.0,55.9,29.97,NW,326,0.0,0.0,75,0.00,,---,0.00,0.00,VWS V14.01,2012-10-21 02:18:00,
2012-10-20 22:19:00,63.9,56.6,29.97,NW,326,0.0,0.0,77,0.00,,---,0.00,0.00,VWS V14.01,2012-10-21 02:19:00,
2012-10-20 22:21:00,63.9,56.6,29.97,NW,326,0.0,0.0,77,0.00,,---,0.00,0.00,VWS V14.01,2012-10-21 02:21:00,
2012-10-20 22:22:00,64.0,56.7,29.97,NW,326,0.0,0.0,77,0.00,,---,0.00,0.00,VWS V14.01,2012-10-21 02:22:00,
2012-10-20 22:23:00,63.8,56.1,29.97,NW,326,0.0,0.0,76,0.00,,---,0.00,0.00,VWS V14.01,2012-10-21 02:23:00,
2012-10-20 22:27:00,64.0,56.7,29.98,NW,326,0.0,0.0,77,0.00,,---,0.00,0.00,VWS V14.01,2012-10-21 02:27:00,
2012-10-20 22:28:00,63.9,56.6,29.97,NW,326,0.0,0.0,77,0.00,,---,0.00,0.00,VWS V14.01,2012-10-21 02:28:00,
2012-10-20 22:29:00,63.9,56.6,29.98,NW,326,0.0,0.0,77,0.00,,---,0.00,0.00,VWS V14.01,2012-10-21 02:29:00,
2012-10-20 22:33:00,64.0,56.3,29.98,NW,326,0.0,0.0,76,0.00,,---,0.00,0.00,VWS V14.01,2012-10-21 02:33:00,
2012-10-20 22:36:00,63.6,55.5,29.98,NW,326,0.0,0.0,75,0.00,,---,0.00,0.00,VWS V14.01,2012-10-21 02:36:00,
2012-10-20 22:38:00,63.9,56.6,29.98,NW,326,0.0,0.0,77,0.00,,---,0.00,0.00,VWS V14.01,2012-10-21 02:38:00,
2012-10-20 22:39:00,63.7,56.0,29.98,NW,326,0.0,0.0,76,0.00,,---,0.00,0.00,VWS V14.01,2012-10-21 02:39:00,
2012-10-20 22:41:00,63.7,56.4,29.98,NW,326,0.0,0.0,77,0.00,,---,0.00,0.00,VWS V14.01,2012-10-21 02:41:00,
2012-10-20 22:43:00,63.6,55.5,29.98,NW,326,0.0,0.0,75,0.00,,---,0.00,0.00,VWS V14.01,2012-10-21 02:43:00,
2012-10-20 22:44:00,63.5,56.2,29.98,NW,326,0.0,0.0,77,0.00,,---,0.00,0.00,VWS V14.01,2012-10-21 02:44:00,
2012-10-20 22:48:00,63.7,56.0,29.98,NW,326,0.0,0.0,76,0.00,,---,0.00,0.00,VWS V14.01,2012-10-21 02:48:00,
2012-10-20 22:49:00,63.2,55.9,29.98,NW,326,0.0,0.0,77,0.00,,---,0.00,0.00,VWS V14.01,2012-10-21 02:49:00,
2012-10-20 22:50:00,63.1,55.8,29.98,NW,326,0.0,0.0,77,0.00,,---,0.00,0.00,VWS V14.01,2012-10-21 02:50:00,
2012-10-20 22:53:00,63.6,56.3,29.98,NW,326,0.0,0.0,77,0.00,,---,0.00,0.00,VWS V14.01,2012-10-21 02:53:00,
2012-10-20 22:54:00,62.9,55.9,29.98,NW,326,0.0,0.0,78,0.00,,---,0.00,0.00,VWS V14.01,2012-10-21 02:54:00,
2012-10-20 22:55:00,62.9,55.9,29.98,NW,326,0.0,0.0,78,0.00,,---,0.00,0.00,VWS V14.01,2012-10-21 02:55:00,
2012-10-20 22:56:00,62.9,56.3,29.98,NW,326,0.0,0.0,79,0.00,,---,0.00,0.00,VWS V14.01,2012-10-21 02:56:00,
2012-10-20 22:57:00,62.9,56.3,29.98,NW,326,0.0,0.0,79,0.00,,---,0.00,0.00,VWS V14.01,2012-10-21 02:57:00,
2012-10-20 22:58:00,63.2,55.9,29.98,NW,326,0.0,0.0,77,0.00,,---,0.00,0.00,VWS V14.01,2012-10-21 02:58:00,
2012-10-20 23:00:00,62.8,56.5,29.98,NW,326,0.0,0.0,80,0.00,,---,0.00,0.00,VWS V14.01,2012-10-21 03:00:00,
2012-10-20 23:01:00,62.8,56.5,29.98,NW,326,0.0,0.0,80,0.00,,---,0.00,0.00,VWS V14.01,2012-10-21 03:01:00,
2012-10-20 23:03:00,62.9,55.9,29.98,NW,326,0.0,0.0,78,0.00,,---,0.00,0.00,VWS V14.01,2012-10-21 03:03:00,
2012-10-20 23:04:00,62.8,56.5,29.98,NW,326,0.0,0.0,80,0.00,,---,0.00,0.00,VWS V14.01,2012-10-21 03:04:00,
2012-10-20 23:06:00,62.7,56.5,29.98,NW,326,0.0,0.0,80,0.00,,---,0.00,0.00,VWS V14.01,2012-10-21 03:06:00,
2012-10-20 23:08:00,62.9,56.6,29.98,NW,326,0.0,0.0,80,0.00,,---,0.00,0.00,VWS V14.01,2012-10-21 03:08:00,
2012-10-20 23:09:00,62.6,56.3,29.98,NW,326,0.0,0.0,80,0.00,,---,0.00,0.00,VWS V14.01,2012-10-21 03:09:00,
2012-10-20 23:12:00,62.5,56.2,29.98,NW,326,0.0,0.0,80,0.00,,---,0.00,0.00,VWS V14.01,2012-10-21 03:12:00,
2012-10-20 23:13:00,62.8,56.5,29.98,NW,326,0.0,0.0,80,0.00,,---,0.00,0.00,VWS V14.01,2012-10-21 03:13:00,
2012-10-20 23:16:00,62.4,55.8,29.99,NW,326,0.0,0.0,79,0.00,,---,0.00,0.00,VWS V14.01,2012-10-21 03:16:00,
2012-10-20 23:17:00,62.4,55.8,29.99,NW,326,0.0,0.0,79,0.00,,---,0.00,0.00,VWS V14.01,2012-10-21 03:17:00,
2012-10-20 23:18:00,62.6,56.3,29.98,NW,326,0.0,0.0,80,0.00,,---,0.00,0.00,VWS V14.01,2012-10-21 03:18:00,
2012-10-20 23:19:00,62.3,55.7,29.99,NW,326,0.0,0.0,79,0.00,,---,0.00,0.00,VWS V14.01,2012-10-21 03:19:00,
2012-10-20 23:21:00,62.3,55.7,29.99,NW,326,0.0,0.0,79,0.00,,---,0.00,0.00,VWS V14.01,2012-10-21 03:21:00,
2012-10-20 23:22:00,62.3,55.7,29.99,NW,326,0.0,0.0,79,0.00,,---,0.00,0.00,VWS V14.01,2012-10-21 03:22:00,
2012-10-20 23:23:00,62.5,56.2,29.99,NW,326,0.0,0.0,80,0.00,,---,0.00,0.00,VWS V14.01,2012-10-21 03:23:00,
2012-10-20 23:24:00,62.2,55.6,29.98,NW,326,0.0,0.0,79,0.00,,---,0.00,0.00,VWS V14.01,2012-10-21 03:24:00,
2012-10-20 23:25:00,62.2,55.6,29.98,NW,326,0.0,0.0,79,0.00,,---,0.00,0.00,VWS V14.01,2012-10-21 03:25:00,
2012-10-20 23:28:00,62.3,55.7,29.99,NW,326,0.0,0.0,79,0.00,,---,0.00,0.00,VWS V14.01,2012-10-21 03:28:00,
2012-10-20 23:29:00,62.1,55.5,29.99,NW,326,0.0,0.0,79,0.00,,---,0.00,0.00,VWS V14.01,2012-10-21 03:29:00,
2012-10-20 23:33:00,62.2,55.6,29.98,NW,326,0.0,0.0,79,0.00,,---,0.00,0.00,VWS V14.01,2012-10-21 03:33:00,
2012-10-20 23:34:00,62.0,55.4,29.98,NW,326,0.0,0.0,79,0.00,,---,0.00,0.00,VWS V14.01,2012-10-21 03:34:00,
2012-10-20 23:37:00,62.0,55.8,29.98,NW,326,0.0,0.0,80,0.00,,---,0.00,0.00,VWS V14.01,2012-10-21 03:37:00,
2012-10-20 23:38:00,62.1,55.5,29.99,NW,326,0.0,0.0,79,0.00,,---,0.00,0.00,VWS V14.01,2012-10-21 03:38:00,
2012-10-20 23:40:00,61.9,55.7,29.98,NW,326,0.0,0.0,80,0.00,,---,0.00,0.00,VWS V14.01,2012-10-21 03:40:00,
2012-10-20 23:43:00,62.0,55.4,29.98,NW,326,0.0,0.0,79,0.00,,---,0.00,0.00,VWS V14.01,2012-10-21 03:43:00,
2012-10-20 23:45:00,61.8,55.9,29.98,NW,326,0.0,0.0,81,0.00,,---,0.00,0.00,VWS V14.01,2012-10-21 03:45:00,
2012-10-20 23:48:00,61.9,55.7,29.98,NW,326,0.0,0.0,80,0.00,,---,0.00,0.00,VWS V14.01,2012-10-21 03:48:00,
2012-10-20 23:49:00,61.8,55.9,29.98,NW,326,0.0,0.0,81,0.00,,---,0.00,0.00,VWS V14.01,2012-10-21 03:49:00,
2012-10-20 23:51:00,61.8,55.9,29.98,NW,326,0.0,0.0,81,0.00,,---,0.00,0.00,VWS V14.01,2012-10-21 03:51:00,
2012-10-20 23:53:00,61.8,55.6,29.98,NW,326,0.0,0.0,80,0.00,,---,0.00,0.00,VWS V14.01,2012-10-21 03:53:00,
2012-10-20 23:54:00,61.7,55.8,29.98,NW,326,0.0,0.0,81,0.00,,---,0.00,0.00,VWS V14.01,2012-10-21 03:54:00,
2012-10-20 23:55:00,61.7,55.8,29.98,NW,326,0.0,0.0,81,0.00,,---,0.00,0.00,VWS V14.01,2012-10-21 03:55:00,
2012-10-20 23:56:00,61.7,55.8,29.98,NW,326,0.0,0.0,81,0.00,,---,0.00,0.00,VWS V14.01,2012-10-21 03:56:00,
2012-10-20 23:57:00,61.6,55.7,29.98,NW,326,0.0,0.0,81,0.00,,---,0.00,0.00,VWS V14.01,2012-10-21 03:57:00,
2012-10-20 23:58:00,61.8,55.9,29.98,NW,326,0.0,0.0,81,0.00,,---,0.00,0.00,VWS V14.01,2012-10-21 03:58:00,
2012-10-20 23:59:00,61.6,56.1,29.98,NW,326,0.0,0.0,82,0.00,,---,0.00,0.00,VWS V14.01,2012-10-21 03:59:00,